Time,TemperatureF,DewpointF,PressureIn,WindDirection,WindDirectionDegrees,WindSpeedMPH,WindSpeedGustMPH,Humidity,HourlyPrecipIn,Conditions,Clouds,dailyrainin,SoftwareType,DateUTC
2013-01-18 00:00:00,22.2,7.3,30.40,NNW,338,0.0,0.0,52,0.00,,CLR,0.00,VWS V14.01,2013-01-18 06:00:00,
2013-01-18 00:03:00,22.2,7.3,30.40,NNW,338,0.0,0.0,52,0.00,,CLR,0.00,VWS V14.01,2013-01-18 06:03:00,
2013-01-18 00:04:00,22.2,7.3,30.40,NNW,338,0.0,0.0,52,0.00,,CLR,0.00,VWS V14.01,2013-01-18 06:04:00,
2013-01-18 00:05:00,22.2,7.3,30.40,NNW,338,0.0,0.0,52,0.00,,CLR,0.00,VWS V14.01,2013-01-18 06:05:00,
2013-01-18 00:09:00,22.6,8.5,30.39,NNW,338,0.0,0.0,54,0.00,,CLR,0.00,VWS V14.01,2013-01-18 06:09:00,
2013-01-18 00:12:00,23.0,8.9,30.40,NNW,338,0.0,0.0,54,0.00,,CLR,0.00,VWS V14.01,2013-01-18 06:12:00,
2013-01-18 00:14:00,23.1,8.9,30.39,NNW,338,0.0,0.0,54,0.00,,CLR,0.00,VWS V14.01,2013-01-18 06:14:00,
2013-01-18 00:18:00,23.1,9.4,30.39,NNW,338,0.0,0.0,55,0.00,,CLR,0.00,VWS V14.01,2013-01-18 06:18:00,
2013-01-18 00:19:00,23.1,9.4,30.39,NNW,338,0.0,0.0,55,0.00,,CLR,0.00,VWS V14.01,2013-01-18 06:19:00,
2013-01-18 00:22:00,23.1,9.4,30.39,NNW,338,0.0,0.0,55,0.00,,CLR,0.00,VWS V14.01,2013-01-18 06:22:00,
2013-01-18 00:24:00,23.1,9.4,30.39,NNW,338,0.0,0.0,55,0.00,,CLR,0.00,VWS V14.01,2013-01-18 06:24:00,
2013-01-18 00:25:00,23.1,9.4,30.39,NNW,338,0.0,0.0,55,0.00,,CLR,0.00,VWS V14.01,2013-01-18 06:25:00,
2013-01-18 00:28:00,23.1,9.4,30.40,SW,225,0.0,0.0,55,0.00,,CLR,0.00,VWS V14.01,2013-01-18 06:28:00,
2013-01-18 00:29:00,23.1,9.4,30.40,SW,225,0.0,0.0,55,0.00,,CLR,0.00,VWS V14.01,2013-01-18 06:29:00,
2013-01-18 00:30:00,23.1,9.4,30.40,SW,225,0.0,0.0,55,0.00,,CLR,0.00,VWS V14.01,2013-01-18 06:30:00,
2013-01-18 00:31:00,23.1,9.4,30.40,SW,225,0.0,0.0,55,0.00,,CLR,0.00,VWS V14.01,2013-01-18 06:31:00,
2013-01-18 00:34:00,23.1,9.8,30.39,SW,225,0.0,0.0,56,0.00,,CLR,0.00,VWS V14.01,2013-01-18 06:34:00,
2013-01-18 00:35:00,23.1,9.8,30.39,SW,225,0.0,0.0,56,0.00,,CLR,0.00,VWS V14.01,2013-01-18 06:35:00,
2013-01-18 00:36:00,23.1,9.8,30.39,SW,225,0.0,0.0,56,0.00,,CLR,0.00,VWS V14.01,2013-01-18 06:36:00,
2013-01-18 00:38:00,23.1,9.8,30.39,SW,225,0.0,0.0,56,0.00,,CLR,0.00,VWS V14.01,2013-01-18 06:38:00,
2013-01-18 00:40:00,23.1,9.8,30.39,SW,225,0.0,0.0,56,0.00,,CLR,0.00,VWS V14.01,2013-01-18 06:40:00,
2013-01-18 00:45:00,23.1,9.8,30.39,SW,225,0.0,0.0,56,0.00,,CLR,0.00,VWS V14.01,2013-01-18 06:45:00,
2013-01-18 00:46:00,23.1,9.8,30.39,SW,225,0.0,0.0,56,0.00,,CLR,0.00,VWS V14.01,2013-01-18 06:46:00,
2013-01-18 00:47:00,23.1,9.8,30.39,SW,225,0.0,0.0,56,0.00,,CLR,0.00,VWS V14.01,2013-01-18 06:47:00,
2013-01-18 00:51:00,23.1,9.8,30.39,SW,225,0.0,0.0,56,0.00,,CLR,0.00,VWS V14.01,2013-01-18 06:51:00,
2013-01-18 00:52:00,23.1,9.8,30.39,SW,225,0.0,0.0,56,0.00,,CLR,0.00,VWS V14.01,2013-01-18 06:52:00,
2013-01-18 00:56:00,23.1,9.8,30.40,SW,225,0.0,0.0,56,0.00,,CLR,0.00,VWS V14.01,2013-01-18 06:56:00,
2013-01-18 00:59:00,23.3,9.9,30.39,SW,225,0.0,0.0,56,0.00,,CLR,0.00,VWS V14.01,2013-01-18 06:59:00,
2013-01-18 01:02:00,23.5,10.5,30.39,SW,225,0.0,0.0,57,0.00,,CLR,0.00,VWS V14.01,2013-01-18 07:02:00,
2013-01-18 01:04:00,23.3,10.3,30.39,SW,225,0.0,0.0,57,0.00,,CLR,0.00,VWS V14.01,2013-01-18 07:04:00,
2013-01-18 01:05:00,23.3,10.3,30.39,SW,225,0.0,0.0,57,0.00,,CLR,0.00,VWS V14.01,2013-01-18 07:05:00,
2013-01-18 01:08:00,23.3,9.9,30.38,SW,225,0.0,0.0,56,0.00,,CLR,0.00,VWS V14.01,2013-01-18 07:08:00,
2013-01-18 01:09:00,23.3,9.9,30.38,SW,225,0.0,0.0,56,0.00,,CLR,0.00,VWS V14.01,2013-01-18 07:09:00,
2013-01-18 01:10:00,23.3,9.9,30.38,SW,225,0.0,0.0,56,0.00,,CLR,0.00,VWS V14.01,2013-01-18 07:10:00,
2013-01-18 01:13:00,23.3,9.9,30.38,SW,225,0.0,0.0,56,0.00,,CLR,0.00,VWS V14.01,2013-01-18 07:13:00,
2013-01-18 01:14:00,23.3,9.9,30.38,SW,225,0.0,0.0,56,0.00,,CLR,0.00,VWS V14.01,2013-01-18 07:14:00,
2013-01-18 01:16:00,23.3,9.9,30.38,SW,225,0.0,0.0,56,0.00,,CLR,0.00,VWS V14.01,2013-01-18 07:16:00,
2013-01-18 01:18:00,23.1,9.8,30.38,SW,225,0.0,0.0,56,0.00,,CLR,0.00,VWS V14.01,2013-01-18 07:18:00,
2013-01-18 01:47:00,23.3,10.3,30.39,SSE,158,0.0,0.0,57,0.00,,CLR,0.00,VWS V14.01,2013-01-18 07:47:00,
2013-01-18 01:48:00,23.3,10.3,30.39,SSE,158,0.0,0.0,57,0.00,,CLR,0.00,VWS V14.01,2013-01-18 07:48:00,
2013-01-18 01:49:00,23.3,10.3,30.38,SSE,158,0.0,0.0,57,0.00,,CLR,0.00,VWS V14.01,2013-01-18 07:49:00,
2013-01-18 01:54:00,23.3,10.3,30.38,SSE,158,0.0,0.0,57,0.00,,BKN120,0.00,VWS V14.01,2013-01-18 07:54:00,
2013-01-18 01:55:00,23.3,10.3,30.38,SSE,158,0.0,0.0,57,0.00,,BKN120,0.00,VWS V14.01,2013-01-18 07:55:00,
2013-01-18 01:56:00,23.3,10.3,30.38,SSE,158,0.0,0.0,57,0.00,,BKN120,0.00,VWS V14.01,2013-01-18 07:56:00,
2013-01-18 01:57:00,23.3,10.3,30.38,SSE,158,0.0,0.0,57,0.00,,BKN120,0.00,VWS V14.01,2013-01-18 07:57:00,
2013-01-18 02:00:00,23.3,10.3,30.38,SSE,158,0.0,0.0,57,0.00,,BKN120,0.00,VWS V14.01,2013-01-18 08:00:00,
2013-01-18 02:02:00,23.5,10.5,30.38,SSE,158,0.0,0.0,57,0.00,,BKN120,0.00,VWS V14.01,2013-01-18 08:02:00,
2013-01-18 02:03:00,23.5,10.1,30.38,SSE,158,0.0,0.0,56,0.00,,BKN120,0.00,VWS V14.01,2013-01-18 08:03:00,
2013-01-18 02:05:00,23.3,9.9,30.38,South,180,0.0,0.0,56,0.00,,BKN120,0.00,VWS V14.01,2013-01-18 08:05:00,
2013-01-18 02:08:00,23.3,9.9,30.39,South,180,0.0,0.0,56,0.00,,BKN120,0.00,VWS V14.01,2013-01-18 08:08:00,
2013-01-18 02:10:00,23.5,10.1,30.39,South,180,0.0,0.0,56,0.00,,BKN120,0.00,VWS V14.01,2013-01-18 08:10:00,
2013-01-18 02:14:00,23.3,9.9,30.38,SSW,202,0.0,0.0,56,0.00,,BKN120,0.00,VWS V14.01,2013-01-18 08:14:00,
2013-01-18 02:15:00,23.5,10.1,30.39,South,180,0.0,0.0,56,0.00,,BKN120,0.00,VWS V14.01,2013-01-18 08:15:00,
2013-01-18 02:16:00,23.5,10.1,30.39,SSE,158,0.0,0.0,56,0.00,,BKN120,0.00,VWS V14.01,2013-01-18 08:16:00,
2013-01-18 02:17:00,23.5,10.1,30.39,SSE,158,0.0,0.0,56,0.00,,BKN120,0.00,VWS V14.01,2013-01-18 08:17:00,
2013-01-18 02:22:00,23.7,10.3,30.39,SSE,158,0.0,0.0,56,0.00,,BKN120,0.00,VWS V14.01,2013-01-18 08:22:00,
2013-01-18 02:24:00,23.5,10.1,30.38,SSE,158,0.0,0.0,56,0.00,,BKN120,0.00,VWS V14.01,2013-01-18 08:24:00,
2013-01-18 02:28:00,23.5,10.1,30.38,SSE,158,0.0,0.0,56,0.00,,BKN120,0.00,VWS V14.01,2013-01-18 08:28:00,
2013-01-18 02:30:00,23.7,10.3,30.38,SSE,158,0.0,1.6,56,0.00,,BKN120,0.00,VWS V14.01,2013-01-18 08:30:00,
2013-01-18 02:32:00,23.7,10.3,30.38,South,180,0.0,0.0,56,0.00,,BKN120,0.00,VWS V14.01,2013-01-18 08:32:00,
2013-01-18 02:34:00,23.7,10.3,30.38,South,180,0.0,0.0,56,0.00,,BKN120,0.00,VWS V14.01,2013-01-18 08:34:00,
2013-01-18 02:36:00,23.7,10.3,30.38,South,180,0.0,0.0,56,0.00,,BKN120,0.00,VWS V14.01,2013-01-18 08:36:00,
2013-01-18 02:37:00,23.7,10.3,30.38,South,180,0.0,0.0,56,0.00,,BKN120,0.00,VWS V14.01,2013-01-18 08:37:00,
2013-01-18 02:40:00,23.7,10.3,30.37,South,180,0.0,0.0,56,0.00,,CLR,0.00,VWS V14.01,2013-01-18 08:40:00,
2013-01-18 02:42:00,23.7,10.3,30.37,South,180,0.0,0.0,56,0.00,,CLR,0.00,VWS V14.01,2013-01-18 08:42:00,
2013-01-18 02:45:00,23.7,10.3,30.37,South,180,0.0,0.0,56,0.00,,CLR,0.00,VWS V14.01,2013-01-18 08:45:00,
2013-01-18 02:48:00,23.9,10.5,30.37,South,180,0.0,0.0,56,0.00,,CLR,0.00,VWS V14.01,2013-01-18 08:48:00,
2013-01-18 02:50:00,23.9,10.5,30.37,South,180,0.0,0.0,56,0.00,,CLR,0.00,VWS V14.01,2013-01-18 08:50:00,
2013-01-18 02:52:00,23.9,10.5,30.37,SSE,158,0.0,0.0,56,0.00,,CLR,0.00,VWS V14.01,2013-01-18 08:52:00,
2013-01-18 02:56:00,23.9,10.9,30.37,SSE,158,0.0,0.0,57,0.00,,CLR,0.00,VWS V14.01,2013-01-18 08:56:00,
2013-01-18 02:57:00,24.0,11.0,30.37,SSE,158,0.0,0.0,57,0.00,,CLR,0.00,VWS V14.01,2013-01-18 08:57:00,
2013-01-18 02:58:00,23.9,10.9,30.37,SSE,158,0.0,0.0,57,0.00,,CLR,0.00,VWS V14.01,2013-01-18 08:58:00,
2013-01-18 03:03:00,23.9,10.9,30.37,SSE,158,0.0,0.0,57,0.00,,CLR,0.00,VWS V14.01,2013-01-18 09:03:00,
2013-01-18 03:04:00,24.0,11.0,30.37,SSE,158,0.0,0.0,57,0.00,,CLR,0.00,VWS V14.01,2013-01-18 09:04:00,
2013-01-18 03:05:00,24.0,11.0,30.37,SSE,158,0.0,0.0,57,0.00,,CLR,0.00,VWS V14.01,2013-01-18 09:05:00,
2013-01-18 03:07:00,24.0,11.0,30.37,SSE,158,0.0,0.0,57,0.00,,CLR,0.00,VWS V14.01,2013-01-18 09:07:00,
2013-01-18 03:10:00,24.0,11.0,30.37,SSE,158,0.0,0.0,57,0.00,,CLR,0.00,VWS V14.01,2013-01-18 09:10:00,
2013-01-18 03:12:00,24.2,11.2,30.37,SSE,158,0.0,0.0,57,0.00,,CLR,0.00,VWS V14.01,2013-01-18 09:12:00,
2013-01-18 03:13:00,24.2,11.2,30.37,SSE,158,0.0,0.0,57,0.00,,CLR,0.00,VWS V14.01,2013-01-18 09:13:00,
2013-01-18 03:15:00,24.2,11.2,30.37,SSE,158,0.0,0.0,57,0.00,,CLR,0.00,VWS V14.01,2013-01-18 09:15:00,
2013-01-18 03:19:00,24.2,11.2,30.37,SSE,158,0.0,0.0,57,0.00,,CLR,0.00,VWS V14.01,2013-01-18 09:19:00,
2013-01-18 03:20:00,24.2,11.2,30.37,SSE,158,0.0,0.0,57,0.00,,CLR,0.00,VWS V14.01,2013-01-18 09:20:00,
2013-01-18 03:21:00,24.2,11.2,30.37,SSE,158,0.0,0.0,57,0.00,,CLR,0.00,VWS V14.01,2013-01-18 09:21:00,
2013-01-18 03:22:00,24.2,11.2,30.37,SSE,158,0.0,0.0,57,0.00,,CLR,0.00,VWS V14.01,2013-01-18 09:22:00,
2013-01-18 03:25:00,24.2,11.2,30.37,SSE,158,0.0,0.0,57,0.00,,CLR,0.00,VWS V14.01,2013-01-18 09:25:00,
2013-01-18 03:26:00,24.2,11.2,30.37,SSE,158,0.0,0.0,57,0.00,,CLR,0.00,VWS V14.01,2013-01-18 09:26:00,
2013-01-18 03:28:00,24.4,11.4,30.37,SSE,158,0.0,0.0,57,0.00,,CLR,0.00,VWS V14.01,2013-01-18 09:28:00,
2013-01-18 03:33:00,24.4,11.4,30.36,South,180,0.0,0.0,57,0.00,,CLR,0.00,VWS V14.01,2013-01-18 09:33:00,
2013-01-18 03:34:00,24.4,11.4,30.36,South,180,0.0,0.0,57,0.00,,CLR,0.00,VWS V14.01,2013-01-18 09:34:00,
2013-01-18 03:35:00,24.4,11.4,30.36,South,180,0.0,0.0,57,0.00,,CLR,0.00,VWS V14.01,2013-01-18 09:35:00,
2013-01-18 03:36:00,24.4,11.4,30.37,SSE,158,0.0,0.0,57,0.00,,CLR,0.00,VWS V14.01,2013-01-18 09:36:00,
2013-01-18 03:40:00,24.4,11.4,30.36,SSE,158,0.0,0.0,57,0.00,,CLR,0.00,VWS V14.01,2013-01-18 09:40:00,
2013-01-18 03:41:00,24.4,11.4,30.36,SSE,158,0.0,0.0,57,0.00,,CLR,0.00,VWS V14.01,2013-01-18 09:41:00,
2013-01-18 03:45:00,24.6,11.6,30.36,SSE,158,0.0,0.0,57,0.00,,CLR,0.00,VWS V14.01,2013-01-18 09:45:00,
2013-01-18 03:46:00,24.4,11.4,30.36,South,180,0.0,0.0,57,0.00,,CLR,0.00,VWS V14.01,2013-01-18 09:46:00,
2013-01-18 03:48:00,24.6,11.6,30.36,SSE,158,0.0,0.0,57,0.00,,CLR,0.00,VWS V14.01,2013-01-18 09:48:00,
2013-01-18 03:49:00,24.6,11.6,30.36,South,180,0.0,0.0,57,0.00,,CLR,0.00,VWS V14.01,2013-01-18 09:49:00,
2013-01-18 03:52:00,24.4,11.4,30.35,SSW,202,0.0,0.0,57,0.00,,CLR,0.00,VWS V14.01,2013-01-18 09:52:00,
2013-01-18 03:54:00,24.6,11.6,30.35,SSW,202,0.0,0.0,57,0.00,,CLR,0.00,VWS V14.01,2013-01-18 09:54:00,
2013-01-18 03:55:00,24.4,11.4,30.35,SSW,202,0.0,0.0,57,0.00,,CLR,0.00,VWS V14.01,2013-01-18 09:55:00,
2013-01-18 03:57:00,24.4,11.4,30.35,SSE,158,0.0,0.0,57,0.00,,CLR,0.00,VWS V14.01,2013-01-18 09:57:00,
2013-01-18 04:00:00,24.4,11.4,30.35,SSE,158,0.0,0.0,57,0.00,,CLR,0.00,VWS V14.01,2013-01-18 10:00:00,
2013-01-18 04:04:00,24.4,11.4,30.35,SSW,202,0.0,0.0,57,0.00,,CLR,0.00,VWS V14.01,2013-01-18 10:04:00,
2013-01-18 04:05:00,24.4,11.4,30.34,South,180,0.0,0.0,57,0.00,,CLR,0.00,VWS V14.01,2013-01-18 10:05:00,
2013-01-18 04:06:00,24.4,11.4,30.34,South,180,0.0,0.0,57,0.00,,CLR,0.00,VWS V14.01,2013-01-18 10:06:00,
2013-01-18 04:08:00,24.4,11.4,30.34,South,180,1.2,1.2,57,0.00,,CLR,0.00,VWS V14.01,2013-01-18 10:08:00,
2013-01-18 04:10:00,24.2,11.2,30.34,SSE,158,0.0,0.0,57,0.00,,CLR,0.00,VWS V14.01,2013-01-18 10:10:00,
2013-01-18 04:11:00,24.4,11.4,30.34,SSE,158,0.0,0.0,57,0.00,,CLR,0.00,VWS V14.01,2013-01-18 10:11:00,
2013-01-18 04:15:00,24.2,11.2,30.34,South,180,0.0,0.0,57,0.00,,CLR,0.00,VWS V14.01,2013-01-18 10:15:00,
2013-01-18 04:17:00,24.2,11.2,30.34,South,180,0.0,0.0,57,0.00,,CLR,0.00,VWS V14.01,2013-01-18 10:17:00,
2013-01-18 04:18:00,24.2,11.2,30.34,SSE,158,0.0,0.0,57,0.00,,CLR,0.00,VWS V14.01,2013-01-18 10:18:00,
2013-01-18 04:20:00,24.2,11.2,30.34,SSW,202,0.0,0.0,57,0.00,,CLR,0.00,VWS V14.01,2013-01-18 10:20:00,
2013-01-18 04:22:00,24.4,11.4,30.34,SSE,158,0.0,0.0,57,0.00,,CLR,0.00,VWS V14.01,2013-01-18 10:22:00,
2013-01-18 04:24:00,24.4,11.4,30.34,SSE,158,0.0,0.0,57,0.00,,CLR,0.00,VWS V14.01,2013-01-18 10:24:00,
2013-01-18 04:25:00,24.4,11.4,30.34,SSE,158,0.0,0.0,57,0.00,,CLR,0.00,VWS V14.01,2013-01-18 10:25:00,
2013-01-18 04:29:00,24.4,11.4,30.34,South,180,0.0,0.0,57,0.00,,CLR,0.00,VWS V14.01,2013-01-18 10:29:00,
2013-01-18 04:30:00,24.4,11.4,30.34,SSW,202,0.0,0.0,57,0.00,,CLR,0.00,VWS V14.01,2013-01-18 10:30:00,
2013-01-18 04:35:00,24.4,11.4,30.33,SSE,158,0.0,0.0,57,0.00,,CLR,0.00,VWS V14.01,2013-01-18 10:35:00,
2013-01-18 04:36:00,24.4,11.4,30.33,SSE,158,0.0,0.0,57,0.00,,CLR,0.00,VWS V14.01,2013-01-18 10:36:00,
2013-01-18 04:39:00,24.4,11.4,30.33,SSW,202,0.0,0.0,57,0.00,,CLR,0.00,VWS V14.01,2013-01-18 10:39:00,
2013-01-18 04:41:00,24.4,11.4,30.33,South,180,0.0,0.0,57,0.00,,CLR,0.00,VWS V14.01,2013-01-18 10:41:00,
2013-01-18 04:42:00,24.4,11.4,30.33,SSE,158,0.0,0.0,57,0.00,,CLR,0.00,VWS V14.01,2013-01-18 10:42:00,
2013-01-18 04:44:00,24.4,11.4,30.33,SSE,158,0.0,0.0,57,0.00,,CLR,0.00,VWS V14.01,2013-01-18 10:44:00,
2013-01-18 04:45:00,24.4,11.4,30.33,SSE,158,0.0,0.0,57,0.00,,CLR,0.00,VWS V14.01,2013-01-18 10:45:00,
2013-01-18 04:48:00,24.4,11.4,30.32,SSE,158,0.0,0.0,57,0.00,,CLR,0.00,VWS V14.01,2013-01-18 10:48:00,
2013-01-18 04:50:00,24.6,11.6,30.32,SSE,158,0.0,0.0,57,0.00,,CLR,0.00,VWS V14.01,2013-01-18 10:50:00,
2013-01-18 04:52:00,24.4,11.4,30.32,South,180,0.0,0.0,57,0.00,,CLR,0.00,VWS V14.01,2013-01-18 10:52:00,
2013-01-18 04:54:00,24.4,11.4,30.32,SSE,158,0.0,0.0,57,0.00,,CLR,0.00,VWS V14.01,2013-01-18 10:54:00,
2013-01-18 04:58:00,24.6,11.9,30.32,SSE,158,0.0,0.0,58,0.00,,CLR,0.00,VWS V14.01,2013-01-18 10:58:00,
2013-01-18 05:00:00,24.6,11.9,30.32,SSE,158,0.0,0.0,58,0.00,,CLR,0.00,VWS V14.01,2013-01-18 11:00:00,
2013-01-18 05:01:00,24.6,11.9,30.32,SSE,158,0.0,0.0,58,0.00,,CLR,0.00,VWS V14.01,2013-01-18 11:01:00,
2013-01-18 05:06:00,24.6,11.9,30.31,SSE,158,0.0,0.0,58,0.00,,CLR,0.00,VWS V14.01,2013-01-18 11:06:00,
2013-01-18 05:08:00,24.8,12.1,30.31,SSE,158,0.0,4.8,58,0.00,,CLR,0.00,VWS V14.01,2013-01-18 11:08:00,
2013-01-18 05:12:00,24.8,12.1,30.31,SSW,202,0.0,3.4,58,0.00,,CLR,0.00,VWS V14.01,2013-01-18 11:12:00,
2013-01-18 05:16:00,24.9,12.2,30.31,SSE,158,0.0,7.0,58,0.00,,CLR,0.00,VWS V14.01,2013-01-18 11:16:00,
2013-01-18 05:17:00,24.9,12.2,30.31,SSE,158,0.0,0.0,58,0.00,,CLR,0.00,VWS V14.01,2013-01-18 11:17:00,
2013-01-18 05:19:00,24.9,12.2,30.31,South,180,0.0,0.0,58,0.00,,CLR,0.00,VWS V14.01,2013-01-18 11:19:00,
2013-01-18 05:22:00,25.5,12.8,30.31,SSE,158,11.0,11.0,58,0.00,,CLR,0.00,VWS V14.01,2013-01-18 11:22:00,
2013-01-18 05:25:00,25.5,12.8,30.31,South,180,0.0,0.0,58,0.00,,CLR,0.00,VWS V14.01,2013-01-18 11:25:00,
2013-01-18 05:27:00,25.5,12.8,30.31,SSW,202,1.6,1.6,58,0.00,,CLR,0.00,VWS V14.01,2013-01-18 11:27:00,
2013-01-18 05:28:00,25.5,12.8,30.31,SSW,202,0.0,1.6,58,0.00,,CLR,0.00,VWS V14.01,2013-01-18 11:28:00,
2013-01-18 05:30:00,25.7,13.0,30.31,SSW,202,4.0,4.0,58,0.00,,CLR,0.00,VWS V14.01,2013-01-18 11:30:00,
2013-01-18 05:32:00,25.7,13.0,30.31,South,180,0.8,0.8,58,0.00,,CLR,0.00,VWS V14.01,2013-01-18 11:32:00,
2013-01-18 05:33:00,25.8,13.1,30.31,SSW,202,0.0,0.8,58,0.00,,CLR,0.00,VWS V14.01,2013-01-18 11:33:00,
2013-01-18 05:34:00,25.8,13.1,30.31,SSW,202,0.0,0.8,58,0.00,,CLR,0.00,VWS V14.01,2013-01-18 11:34:00,
2013-01-18 05:38:00,26.2,13.4,30.31,South,180,6.6,6.6,58,0.00,,CLR,0.00,VWS V14.01,2013-01-18 11:38:00,
2013-01-18 05:41:00,26.4,13.6,30.31,SSE,158,5.2,5.2,58,0.00,,FEW044,0.00,VWS V14.01,2013-01-18 11:41:00,
2013-01-18 05:42:00,26.4,13.6,30.30,SSW,202,0.0,5.2,58,0.00,,FEW044,0.00,VWS V14.01,2013-01-18 11:42:00,
2013-01-18 05:44:00,26.7,13.9,30.30,SSW,202,5.2,5.8,58,0.00,,FEW044,0.00,VWS V14.01,2013-01-18 11:44:00,
2013-01-18 05:46:00,26.7,13.9,30.30,SSW,202,0.0,5.2,58,0.00,,FEW044,0.00,VWS V14.01,2013-01-18 11:46:00,
2013-01-18 05:49:00,26.9,14.1,30.30,SSW,202,4.0,4.0,58,0.00,,FEW044,0.00,VWS V14.01,2013-01-18 11:49:00,
2013-01-18 05:50:00,26.9,14.1,30.30,SSW,202,2.2,2.2,58,0.00,,FEW044,0.00,VWS V14.01,2013-01-18 11:50:00,
2013-01-18 05:51:00,27.1,14.3,30.29,SSW,202,0.0,2.2,58,0.00,,FEW044,0.00,VWS V14.01,2013-01-18 11:51:00,
2013-01-18 05:54:00,27.3,14.5,30.30,SSW,202,1.6,1.6,58,0.00,,FEW044,0.00,VWS V14.01,2013-01-18 11:54:00,
2013-01-18 05:56:00,27.5,14.7,30.29,South,180,6.6,6.6,58,0.00,,FEW044,0.00,VWS V14.01,2013-01-18 11:56:00,
2013-01-18 05:57:00,27.6,14.8,30.29,SSE,158,7.6,7.6,58,0.00,,FEW044,0.00,VWS V14.01,2013-01-18 11:57:00,
2013-01-18 06:00:00,28.0,15.1,30.29,SSW,202,12.0,12.0,58,0.00,,FEW044,0.00,VWS V14.01,2013-01-18 12:00:00,
2013-01-18 06:01:00,28.0,15.1,30.29,SSW,202,8.0,12.0,58,0.00,,FEW044,0.00,VWS V14.01,2013-01-18 12:01:00,
2013-01-18 06:03:00,28.2,15.3,30.29,SW,225,0.0,7.6,58,0.00,,FEW044,0.00,VWS V14.01,2013-01-18 12:03:00,
2013-01-18 06:04:00,28.2,14.9,30.29,South,180,0.0,0.0,57,0.00,,FEW044,0.00,VWS V14.01,2013-01-18 12:04:00,
2013-01-18 06:07:00,28.4,15.1,30.29,SSW,202,7.6,7.6,57,0.00,,FEW044,0.00,VWS V14.01,2013-01-18 12:07:00,
2013-01-18 06:09:00,28.5,15.2,30.29,SW,225,0.0,16.0,57,0.00,,FEW044,0.00,VWS V14.01,2013-01-18 12:09:00,
2013-01-18 06:11:00,28.5,15.2,30.29,SW,225,0.0,0.0,57,0.00,,FEW044,0.00,VWS V14.01,2013-01-18 12:11:00,
2013-01-18 06:12:00,28.5,15.2,30.29,South,180,8.4,8.4,57,0.00,,FEW044,0.00,VWS V14.01,2013-01-18 12:12:00,
2013-01-18 06:13:00,28.5,15.2,30.29,SSW,202,0.0,8.4,57,0.00,,FEW044,0.00,VWS V14.01,2013-01-18 12:13:00,
2013-01-18 06:16:00,28.5,14.8,30.29,South,180,0.0,6.6,56,0.00,,FEW044,0.00,VWS V14.01,2013-01-18 12:16:00,
2013-01-18 06:18:00,28.4,14.7,30.29,South,180,4.4,11.0,56,0.00,,FEW044,0.00,VWS V14.01,2013-01-18 12:18:00,
2013-01-18 06:19:00,28.5,14.8,30.29,South,180,11.0,11.0,56,0.00,,FEW044,0.00,VWS V14.01,2013-01-18 12:19:00,
2013-01-18 06:21:00,28.5,14.8,30.29,South,180,0.0,0.0,56,0.00,,FEW044,0.00,VWS V14.01,2013-01-18 12:21:00,
2013-01-18 06:24:00,28.5,14.8,30.28,SSE,158,8.8,8.8,56,0.00,,FEW044,0.00,VWS V14.01,2013-01-18 12:24:00,
2013-01-18 06:29:00,28.5,14.8,30.27,SSW,202,5.2,5.2,56,0.00,,FEW044,0.00,VWS V14.01,2013-01-18 12:29:00,
2013-01-18 06:30:00,28.5,14.8,30.27,South,180,0.0,5.2,56,0.00,,FEW044,0.00,VWS V14.01,2013-01-18 12:30:00,
2013-01-18 06:31:00,28.5,14.8,30.27,South,180,0.0,0.0,56,0.00,,FEW044,0.00,VWS V14.01,2013-01-18 12:31:00,
2013-01-18 06:34:00,28.5,14.8,30.27,SSW,202,0.0,0.0,56,0.00,,FEW044,0.00,VWS V14.01,2013-01-18 12:34:00,
2013-01-18 06:36:00,28.2,14.5,30.27,SSE,158,3.4,5.8,56,0.00,,FEW044,0.00,VWS V14.01,2013-01-18 12:36:00,
2013-01-18 06:40:00,28.2,14.5,30.27,South,180,16.4,16.4,56,0.00,,FEW044,0.00,VWS V14.01,2013-01-18 12:40:00,
2013-01-18 06:42:00,28.2,14.5,30.27,SSE,158,0.0,16.4,56,0.00,,FEW044,0.00,VWS V14.01,2013-01-18 12:42:00,
2013-01-18 06:43:00,28.0,14.3,30.26,South,180,6.2,6.2,56,0.00,,FEW044,0.00,VWS V14.01,2013-01-18 12:43:00,
2013-01-18 06:44:00,28.0,14.3,30.26,South,180,5.8,5.8,56,0.00,,FEW044,0.00,VWS V14.01,2013-01-18 12:44:00,
2013-01-18 06:48:00,27.8,14.2,30.26,SSW,202,3.0,8.8,56,0.00,,FEW044,0.00,VWS V14.01,2013-01-18 12:48:00,
2013-01-18 06:49:00,27.8,14.2,30.26,SSW,202,10.2,10.2,56,0.00,,FEW044,0.00,VWS V14.01,2013-01-18 12:49:00,
2013-01-18 06:50:00,27.8,14.2,30.26,SSW,202,12.4,12.4,56,0.00,,OVC040,0.00,VWS V14.01,2013-01-18 12:50:00,
2013-01-18 06:54:00,27.6,14.0,30.26,SSW,202,9.8,9.8,56,0.00,,OVC040,0.00,VWS V14.01,2013-01-18 12:54:00,
2013-01-18 06:55:00,27.5,13.9,30.26,SSW,202,8.0,9.8,56,0.00,,OVC040,0.00,VWS V14.01,2013-01-18 12:55:00,
2013-01-18 06:56:00,27.5,13.9,30.26,South,180,0.0,0.0,56,0.00,,OVC040,0.00,VWS V14.01,2013-01-18 12:56:00,
2013-01-18 06:59:00,27.5,13.9,30.26,South,180,2.6,2.6,56,0.00,,OVC040,0.00,VWS V14.01,2013-01-18 12:59:00,
2013-01-18 07:00:00,27.5,13.9,30.26,South,180,1.6,1.6,56,0.00,,OVC040,0.00,VWS V14.01,2013-01-18 13:00:00,
2013-01-18 07:02:00,27.5,13.9,30.26,South,180,4.8,4.8,56,0.00,,OVC040,0.00,VWS V14.01,2013-01-18 13:02:00,
2013-01-18 07:04:00,27.3,13.7,30.26,SSE,158,9.8,9.8,56,0.00,,OVC040,0.00,VWS V14.01,2013-01-18 13:04:00,
2013-01-18 07:06:00,27.3,14.1,30.26,SSE,158,7.0,7.0,57,0.00,,OVC040,0.00,VWS V14.01,2013-01-18 13:06:00,
2013-01-18 07:07:00,27.3,14.1,30.26,SSW,202,10.6,10.6,57,0.00,,OVC040,0.00,VWS V14.01,2013-01-18 13:07:00,
2013-01-18 07:09:00,27.3,14.1,30.26,SSW,202,16.0,16.0,57,0.00,,OVC040,0.00,VWS V14.01,2013-01-18 13:09:00,
2013-01-18 07:11:00,27.3,14.1,30.26,SSW,202,6.2,6.2,57,0.00,,OVC040,0.00,VWS V14.01,2013-01-18 13:11:00,
2013-01-18 07:15:00,27.1,13.9,30.25,SSE,158,6.2,7.0,57,0.00,,OVC040,0.00,VWS V14.01,2013-01-18 13:15:00,
2013-01-18 07:16:00,27.1,13.9,30.25,SSE,158,5.2,5.2,57,0.00,,OVC040,0.00,VWS V14.01,2013-01-18 13:16:00,
2013-01-18 07:18:00,27.1,13.9,30.26,SSW,202,8.8,8.8,57,0.00,,OVC040,0.00,VWS V14.01,2013-01-18 13:18:00,
2013-01-18 07:20:00,27.1,13.9,30.26,SSE,158,4.8,8.8,57,0.00,,OVC040,0.00,VWS V14.01,2013-01-18 13:20:00,
2013-01-18 07:23:00,27.1,13.9,30.25,SSE,158,0.0,0.0,57,0.00,,OVC040,0.00,VWS V14.01,2013-01-18 13:23:00,
2013-01-18 07:27:00,27.1,14.3,30.25,SSW,202,3.4,3.4,58,0.00,,OVC040,0.00,VWS V14.01,2013-01-18 13:27:00,
2013-01-18 07:28:00,27.1,14.3,30.25,South,180,0.0,3.4,58,0.00,,OVC040,0.00,VWS V14.01,2013-01-18 13:28:00,
2013-01-18 07:30:00,27.1,14.3,30.25,South,180,4.8,4.8,58,0.00,,OVC040,0.00,VWS V14.01,2013-01-18 13:30:00,
2013-01-18 07:33:00,27.1,14.3,30.25,SSE,158,4.4,4.4,58,0.00,,OVC040,0.00,VWS V14.01,2013-01-18 13:33:00,
2013-01-18 07:34:00,27.1,14.3,30.25,SSW,202,8.8,8.8,58,0.00,,OVC040,0.00,VWS V14.01,2013-01-18 13:34:00,
2013-01-18 07:36:00,27.1,14.3,30.25,SSE,158,4.0,4.0,58,0.00,,OVC040,0.00,VWS V14.01,2013-01-18 13:36:00,
2013-01-18 07:38:00,27.1,14.3,30.25,SSW,202,2.2,8.4,58,0.00,,OVC040,0.00,VWS V14.01,2013-01-18 13:38:00,
2013-01-18 07:39:00,27.1,14.3,30.24,South,180,2.6,2.6,58,0.00,,OVC040,0.00,VWS V14.01,2013-01-18 13:39:00,
2013-01-18 07:42:00,27.1,14.3,30.24,SSW,202,14.2,14.2,58,0.00,,CLR,0.00,VWS V14.01,2013-01-18 13:42:00,
2013-01-18 07:44:00,27.3,14.5,30.25,SSE,158,11.6,11.6,58,0.00,,CLR,0.00,VWS V14.01,2013-01-18 13:44:00,
2013-01-18 07:46:00,27.5,14.7,30.24,SSE,158,7.6,11.6,58,0.00,,CLR,0.00,VWS V14.01,2013-01-18 13:46:00,
2013-01-18 07:47:00,27.5,14.7,30.24,SSE,158,7.6,7.6,58,0.00,,CLR,0.00,VWS V14.01,2013-01-18 13:47:00,
2013-01-18 07:50:00,27.5,14.7,30.24,SSW,202,4.0,4.8,58,0.00,,CLR,0.00,VWS V14.01,2013-01-18 13:50:00,
2013-01-18 07:53:00,27.5,14.7,30.24,SW,225,2.6,2.6,58,0.00,,CLR,0.00,VWS V14.01,2013-01-18 13:53:00,
2013-01-18 07:54:00,27.5,14.7,30.24,South,180,5.8,5.8,58,0.00,,CLR,0.00,VWS V14.01,2013-01-18 13:54:00,
2013-01-18 07:56:00,27.6,14.8,30.24,SSW,202,17.4,17.4,58,0.00,,CLR,0.00,VWS V14.01,2013-01-18 13:56:00,
2013-01-18 07:58:00,27.8,15.0,30.24,SSE,158,4.8,4.8,58,0.00,,CLR,0.00,VWS V14.01,2013-01-18 13:58:00,
2013-01-18 07:59:00,27.8,15.0,30.24,South,180,8.0,8.0,58,0.00,,CLR,0.00,VWS V14.01,2013-01-18 13:59:00,
2013-01-18 08:02:00,28.0,15.1,30.24,SSW,202,6.6,16.0,58,0.00,,CLR,0.00,VWS V14.01,2013-01-18 14:02:00,
2013-01-18 08:04:00,28.4,15.5,30.24,SSW,202,9.8,9.8,58,0.00,,CLR,0.00,VWS V14.01,2013-01-18 14:04:00,
2013-01-18 08:05:00,28.4,15.5,30.24,SSW,202,9.8,9.8,58,0.00,,CLR,0.00,VWS V14.01,2013-01-18 14:05:00,
2013-01-18 08:06:00,28.5,15.6,30.24,SSW,202,4.0,9.8,58,0.00,,CLR,0.00,VWS V14.01,2013-01-18 14:06:00,
2013-01-18 08:08:00,28.5,15.6,30.24,SSE,158,3.4,4.0,58,0.00,,CLR,0.00,VWS V14.01,2013-01-18 14:08:00,
2013-01-18 08:10:00,28.5,15.6,30.24,SSE,158,4.8,9.8,58,0.00,,CLR,0.00,VWS V14.01,2013-01-18 14:10:00,
2013-01-18 08:12:00,28.7,15.4,30.24,SW,225,18.2,18.2,57,0.00,,CLR,0.00,VWS V14.01,2013-01-18 14:12:00,
2013-01-18 08:13:00,28.7,15.4,30.24,SW,225,18.2,18.2,57,0.00,,CLR,0.00,VWS V14.01,2013-01-18 14:13:00,
2013-01-18 08:14:00,29.1,15.8,30.24,SSE,158,6.6,18.2,57,0.00,,CLR,0.00,VWS V14.01,2013-01-18 14:14:00,
2013-01-18 08:17:00,29.1,15.8,30.24,South,180,0.0,0.0,57,0.00,,CLR,0.00,VWS V14.01,2013-01-18 14:17:00,
2013-01-18 08:19:00,29.3,16.0,30.24,South,180,18.2,18.2,57,0.00,,CLR,0.00,VWS V14.01,2013-01-18 14:19:00,
2013-01-18 08:21:00,29.3,16.0,30.24,SSW,202,0.0,0.0,57,0.00,,CLR,0.00,VWS V14.01,2013-01-18 14:21:00,
2013-01-18 08:22:00,29.3,16.0,30.24,SW,225,4.0,4.0,57,0.00,,CLR,0.00,VWS V14.01,2013-01-18 14:22:00,
2013-01-18 08:24:00,29.4,16.1,30.24,SSW,202,5.8,10.2,57,0.00,,CLR,0.00,VWS V14.01,2013-01-18 14:24:00,
2013-01-18 08:26:00,29.6,15.8,30.24,SSW,202,19.6,19.6,56,0.00,,CLR,0.00,VWS V14.01,2013-01-18 14:26:00,
2013-01-18 08:27:00,29.6,15.8,30.24,East,90,8.8,19.6,56,0.00,,CLR,0.00,VWS V14.01,2013-01-18 14:27:00,
2013-01-18 08:31:00,29.8,16.0,30.24,South,180,4.8,15.2,56,0.00,,CLR,0.00,VWS V14.01,2013-01-18 14:31:00,
2013-01-18 08:34:00,30.3,16.5,30.24,SSW,202,21.0,21.0,56,0.00,,CLR,0.00,VWS V14.01,2013-01-18 14:34:00,
2013-01-18 08:35:00,30.3,16.5,30.23,SSW,202,15.2,21.0,56,0.00,,CLR,0.00,VWS V14.01,2013-01-18 14:35:00,
2013-01-18 08:36:00,30.5,16.7,30.23,South,180,11.0,21.0,56,0.00,,CLR,0.00,VWS V14.01,2013-01-18 14:36:00,
2013-01-18 08:40:00,30.9,16.6,30.23,SSW,202,10.6,10.6,55,0.00,,CLR,0.00,VWS V14.01,2013-01-18 14:40:00,
2013-01-18 08:42:00,30.9,16.6,30.23,South,180,6.6,6.6,55,0.00,,CLR,0.00,VWS V14.01,2013-01-18 14:42:00,
2013-01-18 08:44:00,30.9,16.6,30.22,SSW,202,11.0,11.0,55,0.00,,CLR,0.00,VWS V14.01,2013-01-18 14:44:00,
2013-01-18 08:45:00,31.1,16.8,30.22,SSW,202,0.0,11.0,55,0.00,,CLR,0.00,VWS V14.01,2013-01-18 14:45:00,
2013-01-18 08:48:00,31.2,16.9,30.22,SSW,202,3.4,8.4,55,0.00,,CLR,0.00,VWS V14.01,2013-01-18 14:48:00,
2013-01-18 08:50:00,31.6,16.9,30.22,South,180,4.0,7.0,54,0.00,,CLR,0.00,VWS V14.01,2013-01-18 14:50:00,
2013-01-18 08:52:00,31.6,16.9,30.22,SSW,202,6.2,17.8,54,0.00,,CLR,0.00,VWS V14.01,2013-01-18 14:52:00,
2013-01-18 08:55:00,32.0,17.2,30.22,SW,225,3.4,4.8,54,0.00,,CLR,0.00,VWS V14.01,2013-01-18 14:55:00,
2013-01-18 08:56:00,32.0,17.2,30.22,SW,225,6.6,6.6,54,0.00,,CLR,0.00,VWS V14.01,2013-01-18 14:56:00,
2013-01-18 08:58:00,32.1,16.9,30.22,South,180,9.2,9.2,53,0.00,,CLR,0.00,VWS V14.01,2013-01-18 14:58:00,
2013-01-18 09:00:00,32.1,16.9,30.22,SW,225,5.8,5.8,53,0.00,,CLR,0.00,VWS V14.01,2013-01-18 15:00:00,
2013-01-18 09:03:00,32.5,17.3,30.22,South,180,17.8,17.8,53,0.00,,CLR,0.00,VWS V14.01,2013-01-18 15:03:00,
2013-01-18 09:05:00,32.7,17.5,30.22,SW,225,0.0,10.6,53,0.00,,CLR,0.00,VWS V14.01,2013-01-18 15:05:00,
2013-01-18 09:06:00,32.9,17.7,30.22,SSW,202,10.6,10.6,53,0.00,,CLR,0.00,VWS V14.01,2013-01-18 15:06:00,
2013-01-18 09:10:00,33.2,17.5,30.22,SW,225,2.6,7.0,52,0.00,,CLR,0.00,VWS V14.01,2013-01-18 15:10:00,
2013-01-18 09:14:00,33.2,17.0,30.21,SW,225,6.6,6.6,51,0.00,,CLR,0.00,VWS V14.01,2013-01-18 15:14:00,
2013-01-18 09:15:00,33.2,17.0,30.21,WSW,248,5.2,6.6,51,0.00,,CLR,0.00,VWS V14.01,2013-01-18 15:15:00,
2013-01-18 09:16:00,33.2,17.0,30.22,SSW,202,12.0,12.0,51,0.00,,CLR,0.00,VWS V14.01,2013-01-18 15:16:00,
2013-01-18 09:21:00,33.6,17.4,30.21,SSW,202,13.8,13.8,51,0.00,,CLR,0.00,VWS V14.01,2013-01-18 15:21:00,
2013-01-18 09:22:00,33.6,17.4,30.21,South,180,23.6,23.6,51,0.00,,CLR,0.00,VWS V14.01,2013-01-18 15:22:00,
2013-01-18 09:23:00,33.6,17.4,30.21,SSW,202,8.0,23.6,51,0.00,,CLR,0.00,VWS V14.01,2013-01-18 15:23:00,
2013-01-18 09:24:00,33.8,17.6,30.21,SE,135,13.8,23.6,51,0.00,,CLR,0.00,VWS V14.01,2013-01-18 15:24:00,
2013-01-18 09:26:00,33.6,17.0,30.20,South,180,18.6,18.6,50,0.00,,CLR,0.00,VWS V14.01,2013-01-18 15:26:00,
2013-01-18 09:28:00,33.6,17.0,30.20,SW,225,0.0,18.6,50,0.00,,CLR,0.00,VWS V14.01,2013-01-18 15:28:00,
2013-01-18 09:29:00,33.8,17.6,30.20,South,180,8.0,8.0,51,0.00,,CLR,0.00,VWS V14.01,2013-01-18 15:29:00,
2013-01-18 09:30:00,33.8,17.6,30.20,South,180,11.6,11.6,51,0.00,,CLR,0.00,VWS V14.01,2013-01-18 15:30:00,
2013-01-18 09:32:00,33.8,17.1,30.20,South,180,15.2,15.2,50,0.00,,CLR,0.00,VWS V14.01,2013-01-18 15:32:00,
2013-01-18 09:33:00,33.9,17.2,30.20,ESE,112,6.2,15.2,50,0.00,,CLR,0.00,VWS V14.01,2013-01-18 15:33:00,
2013-01-18 09:36:00,33.9,17.2,30.20,SSW,202,13.8,13.8,50,0.00,,CLR,0.00,VWS V14.01,2013-01-18 15:36:00,
2013-01-18 09:37:00,33.9,17.2,30.20,SW,225,5.8,13.8,50,0.00,,CLR,0.00,VWS V14.01,2013-01-18 15:37:00,
2013-01-18 09:38:00,33.9,17.2,30.20,ESE,112,4.0,4.0,50,0.00,,CLR,0.00,VWS V14.01,2013-01-18 15:38:00,
2013-01-18 09:42:00,34.3,17.6,30.20,SW,225,4.8,4.8,50,0.00,,CLR,0.00,VWS V14.01,2013-01-18 15:42:00,
2013-01-18 09:44:00,34.5,17.8,30.20,South,180,9.2,12.4,50,0.00,,CLR,0.00,VWS V14.01,2013-01-18 15:44:00,
2013-01-18 09:46:00,34.7,18.0,30.21,SSW,202,15.6,19.2,50,0.00,,CLR,0.00,VWS V14.01,2013-01-18 15:46:00,
2013-01-18 09:49:00,34.7,18.0,30.20,SSW,202,6.2,8.4,50,0.00,,CLR,0.00,VWS V14.01,2013-01-18 15:49:00,
2013-01-18 09:50:00,34.7,18.0,30.20,South,180,18.6,18.6,50,0.00,,CLR,0.00,VWS V14.01,2013-01-18 15:50:00,
2013-01-18 09:54:00,34.7,18.0,30.20,South,180,11.6,17.0,50,0.00,,CLR,0.00,VWS V14.01,2013-01-18 15:54:00,
2013-01-18 09:56:00,34.7,18.0,30.20,South,180,16.4,16.4,50,0.00,,CLR,0.00,VWS V14.01,2013-01-18 15:56:00,
2013-01-18 09:57:00,34.7,18.0,30.20,SW,225,12.0,16.4,50,0.00,,CLR,0.00,VWS V14.01,2013-01-18 15:57:00,
2013-01-18 10:00:00,35.0,18.2,30.20,South,180,7.0,13.4,50,0.00,,CLR,0.00,VWS V14.01,2013-01-18 16:00:00,
2013-01-18 10:02:00,35.0,18.7,30.20,SSE,158,7.6,8.4,51,0.00,,CLR,0.00,VWS V14.01,2013-01-18 16:02:00,
2013-01-18 10:03:00,35.0,18.7,30.20,SSE,158,7.6,7.6,51,0.00,,CLR,0.00,VWS V14.01,2013-01-18 16:03:00,
2013-01-18 10:05:00,35.4,19.1,30.19,SW,225,7.6,7.6,51,0.00,,CLR,0.00,VWS V14.01,2013-01-18 16:05:00,
2013-01-18 10:06:00,35.4,19.1,30.19,SSW,202,14.6,14.6,51,0.00,,CLR,0.00,VWS V14.01,2013-01-18 16:06:00,
2013-01-18 10:08:00,35.4,18.6,30.19,South,180,8.8,14.6,50,0.00,,CLR,0.00,VWS V14.01,2013-01-18 16:08:00,
2013-01-18 10:10:00,35.6,19.3,30.19,SSW,202,8.0,12.0,51,0.00,,CLR,0.00,VWS V14.01,2013-01-18 16:10:00,
2013-01-18 10:12:00,35.7,18.9,30.19,South,180,6.6,6.6,50,0.00,,CLR,0.00,VWS V14.01,2013-01-18 16:12:00,
2013-01-18 10:14:00,35.7,18.9,30.19,SW,225,17.0,17.0,50,0.00,,CLR,0.00,VWS V14.01,2013-01-18 16:14:00,
2013-01-18 10:15:00,35.9,19.5,30.19,SW,225,7.6,7.6,51,0.00,,CLR,0.00,VWS V14.01,2013-01-18 16:15:00,
2013-01-18 10:18:00,35.9,19.1,30.19,SW,225,21.8,21.8,50,0.00,,CLR,0.00,VWS V14.01,2013-01-18 16:18:00,
2013-01-18 10:19:00,35.9,19.1,30.19,SW,225,21.8,21.8,50,0.00,,CLR,0.00,VWS V14.01,2013-01-18 16:19:00,
2013-01-18 10:20:00,35.9,19.1,30.19,SSW,202,15.2,21.8,50,0.00,,CLR,0.00,VWS V14.01,2013-01-18 16:20:00,
2013-01-18 10:24:00,35.9,19.1,30.18,South,180,9.8,11.6,50,0.00,,CLR,0.00,VWS V14.01,2013-01-18 16:24:00,
2013-01-18 10:25:00,35.9,19.1,30.18,South,180,9.8,9.8,50,0.00,,CLR,0.00,VWS V14.01,2013-01-18 16:25:00,
2013-01-18 10:27:00,35.9,19.1,30.18,SW,225,7.0,7.0,50,0.00,,CLR,0.00,VWS V14.01,2013-01-18 16:27:00,
2013-01-18 10:32:00,36.3,19.5,30.18,South,180,6.2,19.6,50,0.00,,CLR,0.00,VWS V14.01,2013-01-18 16:32:00,
2013-01-18 10:34:00,36.5,19.6,30.18,SW,225,18.2,18.2,50,0.00,,CLR,0.00,VWS V14.01,2013-01-18 16:34:00,
2013-01-18 10:36:00,36.5,19.6,30.18,SSW,202,9.8,13.8,50,0.00,,CLR,0.00,VWS V14.01,2013-01-18 16:36:00,
2013-01-18 10:37:00,36.5,19.6,30.17,WSW,248,17.8,17.8,50,0.00,,CLR,0.00,VWS V14.01,2013-01-18 16:37:00,
2013-01-18 10:38:00,36.8,19.9,30.17,South,180,11.0,17.8,50,0.00,,CLR,0.00,VWS V14.01,2013-01-18 16:38:00,
2013-01-18 10:42:00,37.0,20.1,30.17,SSW,202,5.8,16.0,50,0.00,,CLR,0.00,VWS V14.01,2013-01-18 16:42:00,
2013-01-18 10:44:00,37.2,20.3,30.17,South,180,11.0,11.0,50,0.00,,CLR,0.00,VWS V14.01,2013-01-18 16:44:00,
2013-01-18 10:47:00,37.9,20.9,30.16,SSW,202,10.2,14.2,50,0.00,,CLR,0.00,VWS V14.01,2013-01-18 16:47:00,
2013-01-18 10:48:00,38.1,20.6,30.16,ESE,112,20.4,20.4,49,0.00,,CLR,0.00,VWS V14.01,2013-01-18 16:48:00,
2013-01-18 10:50:00,38.3,20.8,30.16,SSW,202,13.8,13.8,49,0.00,,CLR,0.00,VWS V14.01,2013-01-18 16:50:00,
2013-01-18 10:54:00,38.6,20.6,30.16,SW,225,14.6,14.6,48,0.00,,CLR,0.00,VWS V14.01,2013-01-18 16:54:00,
2013-01-18 10:56:00,38.8,20.3,30.15,SW,225,17.8,17.8,47,0.00,,CLR,0.00,VWS V14.01,2013-01-18 16:56:00,
2013-01-18 10:58:00,38.8,20.3,30.15,SSW,202,20.4,20.4,47,0.00,,CLR,0.00,VWS V14.01,2013-01-18 16:58:00,
2013-01-18 11:00:00,38.8,20.3,30.15,SSW,202,10.2,21.0,47,0.00,,CLR,0.00,VWS V14.01,2013-01-18 17:00:00,
2013-01-18 11:01:00,38.8,20.3,30.15,South,180,12.8,12.8,47,0.00,,CLR,0.00,VWS V14.01,2013-01-18 17:01:00,
2013-01-18 11:04:00,39.0,20.5,30.14,South,180,16.0,18.2,47,0.00,,CLR,0.00,VWS V14.01,2013-01-18 17:04:00,
2013-01-18 11:06:00,39.3,20.3,30.14,SW,225,12.0,16.0,46,0.00,,CLR,0.00,VWS V14.01,2013-01-18 17:06:00,
2013-01-18 11:08:00,39.5,20.5,30.14,SSW,202,13.4,13.4,46,0.00,,CLR,0.00,VWS V14.01,2013-01-18 17:08:00,
2013-01-18 11:10:00,39.5,20.5,30.14,South,180,14.2,14.2,46,0.00,,CLR,0.00,VWS V14.01,2013-01-18 17:10:00,
2013-01-18 11:12:00,39.9,20.8,30.13,SW,225,19.6,19.6,46,0.00,,CLR,0.00,VWS V14.01,2013-01-18 17:12:00,
2013-01-18 11:13:00,39.9,20.8,30.13,South,180,9.2,19.6,46,0.00,,CLR,0.00,VWS V14.01,2013-01-18 17:13:00,
2013-01-18 11:14:00,39.9,20.8,30.13,South,180,0.0,19.6,46,0.00,,CLR,0.00,VWS V14.01,2013-01-18 17:14:00,
2013-01-18 11:15:00,40.1,21.0,30.13,SW,225,10.2,10.2,46,0.00,,CLR,0.00,VWS V14.01,2013-01-18 17:15:00,
2013-01-18 11:18:00,40.1,20.5,30.13,SSW,202,17.4,17.4,45,0.00,,CLR,0.00,VWS V14.01,2013-01-18 17:18:00,
2013-01-18 11:20:00,40.4,21.3,30.13,SW,225,7.0,17.4,46,0.00,,CLR,0.00,VWS V14.01,2013-01-18 17:20:00,
2013-01-18 11:24:00,41.1,21.4,30.12,South,180,18.2,26.2,45,0.00,,CLR,0.00,VWS V14.01,2013-01-18 17:24:00,
2013-01-18 11:25:00,41.1,21.4,30.12,South,180,11.6,18.2,45,0.00,,CLR,0.00,VWS V14.01,2013-01-18 17:25:00,
2013-01-18 11:26:00,41.0,21.3,30.11,South,180,12.4,12.4,45,0.00,,CLR,0.00,VWS V14.01,2013-01-18 17:26:00,
2013-01-18 11:28:00,41.0,20.8,30.11,SSW,202,18.6,18.6,44,0.00,,CLR,0.00,VWS V14.01,2013-01-18 17:28:00,
2013-01-18 11:30:00,41.0,20.8,30.11,South,180,8.8,18.6,44,0.00,,CLR,0.00,VWS V14.01,2013-01-18 17:30:00,
2013-01-18 11:31:00,40.8,20.6,30.11,South,180,11.6,11.6,44,0.00,,CLR,0.00,VWS V14.01,2013-01-18 17:31:00,
2013-01-18 11:32:00,40.8,20.6,30.11,SSE,158,2.6,2.6,44,0.00,,CLR,0.00,VWS V14.01,2013-01-18 17:32:00,
2013-01-18 11:36:00,41.1,20.9,30.11,SW,225,17.4,17.4,44,0.00,,CLR,0.00,VWS V14.01,2013-01-18 17:36:00,
2013-01-18 11:37:00,41.1,20.9,30.11,SW,225,8.0,17.4,44,0.00,,CLR,0.00,VWS V14.01,2013-01-18 17:37:00,
2013-01-18 11:38:00,41.1,20.9,30.11,SSW,202,20.0,20.0,44,0.00,,CLR,0.00,VWS V14.01,2013-01-18 17:38:00,
2013-01-18 11:41:00,41.5,21.8,30.10,SSW,202,10.6,22.8,45,0.00,,CLR,0.00,VWS V14.01,2013-01-18 17:41:00,
2013-01-18 11:44:00,41.5,21.2,30.09,SW,225,0.0,21.8,44,0.00,,CLR,0.00,VWS V14.01,2013-01-18 17:44:00,
2013-01-18 11:47:00,41.9,21.6,30.09,SSW,202,25.8,25.8,44,0.00,,CLR,0.00,VWS V14.01,2013-01-18 17:47:00,
2013-01-18 11:48:00,41.9,21.0,30.09,SSW,202,14.6,25.8,43,0.00,,CLR,0.00,VWS V14.01,2013-01-18 17:48:00,
2013-01-18 11:50:00,41.9,21.6,30.09,SSE,158,10.2,14.6,44,0.00,,CLR,0.00,VWS V14.01,2013-01-18 17:50:00,
2013-01-18 11:53:00,42.4,22.0,30.09,West,270,10.6,10.6,44,0.00,,CLR,0.00,VWS V14.01,2013-01-18 17:53:00,
2013-01-18 11:56:00,42.9,22.5,30.08,SW,225,14.6,14.6,44,0.00,,CLR,0.00,VWS V14.01,2013-01-18 17:56:00,
2013-01-18 11:57:00,42.9,22.0,30.08,SW,225,22.2,22.2,43,0.00,,CLR,0.00,VWS V14.01,2013-01-18 17:57:00,
2013-01-18 12:00:00,42.9,22.0,30.08,WSW,248,13.4,13.4,43,0.00,,CLR,0.00,VWS V14.01,2013-01-18 18:00:00,
2013-01-18 12:01:00,42.9,22.0,30.08,SSW,202,11.0,13.4,43,0.00,,CLR,0.00,VWS V14.01,2013-01-18 18:01:00,
2013-01-18 12:02:00,43.1,22.1,30.08,SW,225,10.6,10.6,43,0.00,,CLR,0.00,VWS V14.01,2013-01-18 18:02:00,
2013-01-18 12:06:00,43.3,22.3,30.07,SSE,158,14.6,25.0,43,0.00,,CLR,0.00,VWS V14.01,2013-01-18 18:06:00,
2013-01-18 12:09:00,43.5,22.5,30.07,SW,225,8.4,28.6,43,0.00,,CLR,0.00,VWS V14.01,2013-01-18 18:09:00,
2013-01-18 12:11:00,43.5,22.5,30.06,SSW,202,2.6,8.0,43,0.00,,CLR,0.00,VWS V14.01,2013-01-18 18:11:00,
2013-01-18 12:12:00,43.7,22.1,30.06,SSE,158,25.0,25.0,42,0.00,,CLR,0.00,VWS V14.01,2013-01-18 18:12:00,
2013-01-18 12:14:00,43.7,22.1,30.06,SSW,202,6.6,34.0,42,0.00,,CLR,0.00,VWS V14.01,2013-01-18 18:14:00,
2013-01-18 12:16:00,44.0,22.4,30.06,South,180,16.4,16.4,42,0.00,,CLR,0.00,VWS V14.01,2013-01-18 18:16:00,
2013-01-18 12:17:00,44.0,21.8,30.06,SSW,202,13.8,16.4,41,0.00,,CLR,0.00,VWS V14.01,2013-01-18 18:17:00,
2013-01-18 12:20:00,44.2,22.6,30.06,SE,135,11.6,17.4,42,0.00,,CLR,0.00,VWS V14.01,2013-01-18 18:20:00,
2013-01-18 12:23:00,44.6,22.4,30.06,SSW,202,8.0,8.0,41,0.00,,CLR,0.00,VWS V14.01,2013-01-18 18:23:00,
2013-01-18 12:24:00,44.7,22.5,30.06,SE,135,19.2,19.2,41,0.00,,CLR,0.00,VWS V14.01,2013-01-18 18:24:00,
2013-01-18 12:26:00,44.6,22.4,30.05,South,180,20.4,28.0,41,0.00,,CLR,0.00,VWS V14.01,2013-01-18 18:26:00,
2013-01-18 12:29:00,44.4,22.2,30.05,SSW,202,13.8,13.8,41,0.00,,CLR,0.00,VWS V14.01,2013-01-18 18:29:00,
2013-01-18 12:30:00,44.7,22.5,30.05,SSW,202,12.4,13.8,41,0.00,,CLR,0.00,VWS V14.01,2013-01-18 18:30:00,
2013-01-18 12:32:00,44.7,22.5,30.05,South,180,26.2,26.2,41,0.00,,CLR,0.00,VWS V14.01,2013-01-18 18:32:00,
2013-01-18 12:36:00,45.1,22.8,30.04,SSE,158,12.0,13.8,41,0.00,,CLR,0.00,VWS V14.01,2013-01-18 18:36:00,
2013-01-18 12:38:00,45.5,23.2,30.04,SW,225,10.6,11.6,41,0.00,,CLR,0.00,VWS V14.01,2013-01-18 18:38:00,
2013-01-18 12:42:00,46.2,23.2,30.04,South,180,0.0,10.2,40,0.00,,CLR,0.00,VWS V14.01,2013-01-18 18:42:00,
2013-01-18 12:43:00,46.2,23.2,30.04,South,180,0.0,0.0,40,0.00,,CLR,0.00,VWS V14.01,2013-01-18 18:43:00,
2013-01-18 12:46:00,46.5,23.5,30.04,SSE,158,11.6,16.0,40,0.00,,CLR,0.00,VWS V14.01,2013-01-18 18:46:00,
2013-01-18 12:48:00,46.7,23.7,30.03,SSE,158,17.0,17.0,40,0.00,,CLR,0.00,VWS V14.01,2013-01-18 18:48:00,
2013-01-18 12:50:00,46.7,23.1,30.03,South,180,6.2,7.0,39,0.00,,CLR,0.00,VWS V14.01,2013-01-18 18:50:00,
2013-01-18 12:52:00,46.4,22.8,30.03,West,270,10.6,18.2,39,0.00,,CLR,0.00,VWS V14.01,2013-01-18 18:52:00,
2013-01-18 12:56:00,46.4,22.8,30.02,SSW,202,7.0,7.0,39,0.00,,CLR,0.00,VWS V14.01,2013-01-18 18:56:00,
2013-01-18 12:58:00,46.5,22.9,30.02,SSW,202,20.4,20.4,39,0.00,,CLR,0.00,VWS V14.01,2013-01-18 18:58:00,
2013-01-18 12:59:00,46.7,23.1,30.02,SW,225,14.2,14.2,39,0.00,,CLR,0.00,VWS V14.01,2013-01-18 18:59:00,
2013-01-18 13:02:00,46.7,23.1,30.02,South,180,7.6,8.8,39,0.00,,CLR,0.00,VWS V14.01,2013-01-18 19:02:00,
2013-01-18 13:04:00,46.7,23.1,30.02,South,180,5.2,18.2,39,0.00,,CLR,0.00,VWS V14.01,2013-01-18 19:04:00,
2013-01-18 13:05:00,46.7,22.5,30.01,SSW,202,25.4,25.4,38,0.00,,CLR,0.00,VWS V14.01,2013-01-18 19:05:00,
2013-01-18 13:09:00,46.7,22.5,30.01,SSW,202,14.2,14.2,38,0.00,,CLR,0.00,VWS V14.01,2013-01-18 19:09:00,
2013-01-18 13:10:00,46.7,23.1,30.01,SSW,202,3.4,14.2,39,0.00,,CLR,0.00,VWS V14.01,2013-01-18 19:10:00,
2013-01-18 13:11:00,46.7,23.1,30.01,SSW,202,7.0,7.0,39,0.00,,CLR,0.00,VWS V14.01,2013-01-18 19:11:00,
2013-01-18 13:14:00,47.1,23.4,30.00,West,270,4.4,4.4,39,0.00,,CLR,0.00,VWS V14.01,2013-01-18 19:14:00,
2013-01-18 13:15:00,47.3,23.6,30.01,SW,225,20.4,20.4,39,0.00,,CLR,0.00,VWS V14.01,2013-01-18 19:15:00,
2013-01-18 13:18:00,47.1,22.8,30.00,West,270,0.0,23.2,38,0.00,,CLR,0.00,VWS V14.01,2013-01-18 19:18:00,
2013-01-18 13:21:00,47.1,22.8,30.00,SSW,202,19.6,19.6,38,0.00,,CLR,0.00,VWS V14.01,2013-01-18 19:21:00,
2013-01-18 13:23:00,47.1,22.8,30.00,SSE,158,11.6,11.6,38,0.00,,CLR,0.00,VWS V14.01,2013-01-18 19:23:00,
2013-01-18 13:24:00,47.1,23.4,30.00,SSW,202,12.0,12.0,39,0.00,,CLR,0.00,VWS V14.01,2013-01-18 19:24:00,
2013-01-18 13:27:00,47.6,23.3,29.99,SSW,202,0.0,7.0,38,0.00,,CLR,0.00,VWS V14.01,2013-01-18 19:27:00,
2013-01-18 13:32:00,47.3,23.0,29.99,SW,225,17.8,21.4,38,0.00,,CLR,0.00,VWS V14.01,2013-01-18 19:32:00,
2013-01-18 13:34:00,47.6,23.3,29.99,SSW,202,28.0,28.0,38,0.00,,CLR,0.00,VWS V14.01,2013-01-18 19:34:00,
2013-01-18 13:37:00,47.8,23.4,29.99,South,180,19.2,19.2,38,0.00,,CLR,0.00,VWS V14.01,2013-01-18 19:37:00,
2013-01-18 13:40:00,47.8,23.4,29.99,SSW,202,17.8,17.8,38,0.00,,CLR,0.00,VWS V14.01,2013-01-18 19:40:00,
2013-01-18 13:41:00,48.0,23.6,29.98,SSW,202,7.0,17.8,38,0.00,,CLR,0.00,VWS V14.01,2013-01-18 19:41:00,
2013-01-18 13:44:00,47.8,23.4,29.98,South,180,31.2,31.2,38,0.00,,CLR,0.00,VWS V14.01,2013-01-18 19:44:00,
2013-01-18 13:45:00,47.8,22.8,29.99,SW,225,23.2,31.2,37,0.00,,CLR,0.00,VWS V14.01,2013-01-18 19:45:00,
2013-01-18 13:46:00,47.8,22.8,29.99,SW,225,11.6,11.6,37,0.00,,CLR,0.00,VWS V14.01,2013-01-18 19:46:00,
2013-01-18 13:47:00,47.8,22.8,29.99,SW,225,18.6,18.6,37,0.00,,CLR,0.00,VWS V14.01,2013-01-18 19:47:00,
2013-01-18 13:50:00,47.8,23.4,29.98,SW,225,5.8,5.8,38,0.00,,CLR,0.00,VWS V14.01,2013-01-18 19:50:00,
2013-01-18 13:51:00,48.0,23.6,29.98,SW,225,15.2,15.2,38,0.00,,CLR,0.00,VWS V14.01,2013-01-18 19:51:00,
2013-01-18 13:52:00,48.0,23.6,29.98,SSW,202,26.8,26.8,38,0.00,,CLR,0.00,VWS V14.01,2013-01-18 19:52:00,
2013-01-18 13:54:00,48.2,23.8,29.98,SSW,202,28.0,28.0,38,0.00,,CLR,0.00,VWS V14.01,2013-01-18 19:54:00,
2013-01-18 13:56:00,48.3,23.9,29.98,SSE,158,22.8,22.8,38,0.00,,CLR,0.00,VWS V14.01,2013-01-18 19:56:00,
2013-01-18 13:57:00,48.3,23.9,29.98,SW,225,12.4,22.8,38,0.00,,CLR,0.00,VWS V14.01,2013-01-18 19:57:00,
2013-01-18 14:01:00,48.7,24.2,29.97,SE,135,13.4,13.8,38,0.00,,CLR,0.00,VWS V14.01,2013-01-18 20:01:00,
2013-01-18 14:02:00,48.7,23.6,29.97,SSW,202,14.6,14.6,37,0.00,,CLR,0.00,VWS V14.01,2013-01-18 20:02:00,
2013-01-18 14:07:00,48.3,23.3,29.96,SW,225,6.6,16.4,37,0.00,,CLR,0.00,VWS V14.01,2013-01-18 20:07:00,
2013-01-18 14:09:00,48.5,23.4,29.96,SSW,202,8.8,8.8,37,0.00,,CLR,0.00,VWS V14.01,2013-01-18 20:09:00,
2013-01-18 14:10:00,48.7,23.6,29.96,SW,225,17.0,17.0,37,0.00,,CLR,0.00,VWS V14.01,2013-01-18 20:10:00,
2013-01-18 14:11:00,48.7,23.6,29.96,South,180,5.2,17.0,37,0.00,,CLR,0.00,VWS V14.01,2013-01-18 20:11:00,
2013-01-18 14:15:00,48.7,23.6,29.96,SW,225,7.6,18.6,37,0.00,,CLR,0.00,VWS V14.01,2013-01-18 20:15:00,
2013-01-18 14:17:00,48.5,23.4,29.95,South,180,13.8,13.8,37,0.00,,CLR,0.00,VWS V14.01,2013-01-18 20:17:00,
2013-01-18 14:18:00,48.5,23.4,29.95,WNW,292,13.8,13.8,37,0.00,,CLR,0.00,VWS V14.01,2013-01-18 20:18:00,
2013-01-18 14:22:00,48.7,24.2,29.95,SSW,202,15.2,15.2,38,0.00,,CLR,0.00,VWS V14.01,2013-01-18 20:22:00,
2013-01-18 14:23:00,48.5,23.4,29.95,SSW,202,10.2,15.2,37,0.00,,CLR,0.00,VWS V14.01,2013-01-18 20:23:00,
2013-01-18 14:24:00,48.5,24.1,29.95,SSW,202,13.8,15.2,38,0.00,,CLR,0.00,VWS V14.01,2013-01-18 20:24:00,
2013-01-18 14:28:00,48.3,23.9,29.95,WSW,248,19.6,19.6,38,0.00,,CLR,0.00,VWS V14.01,2013-01-18 20:28:00,
2013-01-18 14:30:00,48.3,23.9,29.95,SW,225,12.8,19.6,38,0.00,,CLR,0.00,VWS V14.01,2013-01-18 20:30:00,
2013-01-18 14:32:00,48.0,23.6,29.95,SW,225,17.4,17.4,38,0.00,,CLR,0.00,VWS V14.01,2013-01-18 20:32:00,
2013-01-18 14:34:00,47.8,23.4,29.95,SSE,158,17.8,17.8,38,0.00,,CLR,0.00,VWS V14.01,2013-01-18 20:34:00,
2013-01-18 14:36:00,47.6,23.3,29.94,SSW,202,24.6,24.6,38,0.00,,CLR,0.00,VWS V14.01,2013-01-18 20:36:00,
2013-01-18 14:37:00,47.8,23.4,29.94,SSW,202,9.2,24.6,38,0.00,,CLR,0.00,VWS V14.01,2013-01-18 20:37:00,
2013-01-18 14:40:00,48.0,24.2,29.94,South,180,15.6,15.6,39,0.00,,CLR,0.00,VWS V14.01,2013-01-18 20:40:00,
2013-01-18 14:42:00,47.8,24.1,29.94,SW,225,13.4,17.4,39,0.00,,CLR,0.00,VWS V14.01,2013-01-18 20:42:00,
2013-01-18 14:46:00,47.8,24.1,29.94,SSW,202,15.2,15.2,39,0.00,,CLR,0.00,VWS V14.01,2013-01-18 20:46:00,
2013-01-18 14:48:00,48.0,24.2,29.94,North,0,0.0,15.2,39,0.00,,CLR,0.00,VWS V14.01,2013-01-18 20:48:00,
2013-01-18 14:52:00,48.3,24.5,29.94,SSW,202,10.6,15.2,39,0.00,,CLR,0.00,VWS V14.01,2013-01-18 20:52:00,
2013-01-18 14:53:00,48.3,24.5,29.94,South,180,6.2,6.2,39,0.00,,CLR,0.00,VWS V14.01,2013-01-18 20:53:00,
2013-01-18 14:54:00,48.3,24.5,29.94,SSE,158,8.0,10.2,39,0.00,,CLR,0.00,VWS V14.01,2013-01-18 20:54:00,
2013-01-18 14:58:00,48.0,24.2,29.93,SSW,202,8.0,21.8,39,0.00,,CLR,0.00,VWS V14.01,2013-01-18 20:58:00,
2013-01-18 15:00:00,48.0,24.2,29.93,SW,225,14.6,14.6,39,0.00,,CLR,0.00,VWS V14.01,2013-01-18 21:00:00,
2013-01-18 15:02:00,48.3,25.1,29.93,SSW,202,11.6,12.4,40,0.00,,CLR,0.00,VWS V14.01,2013-01-18 21:02:00,
2013-01-18 15:04:00,48.3,25.1,29.93,SW,225,14.2,14.6,40,0.00,,CLR,0.00,VWS V14.01,2013-01-18 21:04:00,
2013-01-18 15:08:00,48.7,25.5,29.93,SSE,158,18.6,18.6,40,0.00,,CLR,0.00,VWS V14.01,2013-01-18 21:08:00,
2013-01-18 15:09:00,48.7,25.5,29.93,SSE,158,18.6,18.6,40,0.00,,CLR,0.00,VWS V14.01,2013-01-18 21:09:00,
2013-01-18 15:11:00,48.5,24.7,29.93,NW,315,5.8,5.8,39,0.00,,CLR,0.00,VWS V14.01,2013-01-18 21:11:00,
2013-01-18 15:12:00,48.3,24.5,29.93,WSW,248,7.0,7.0,39,0.00,,CLR,0.00,VWS V14.01,2013-01-18 21:12:00,
2013-01-18 15:14:00,48.5,24.7,29.93,SE,135,9.2,21.8,39,0.00,,CLR,0.00,VWS V14.01,2013-01-18 21:14:00,
2013-01-18 15:16:00,48.3,25.1,29.93,SSW,202,16.0,16.0,40,0.00,,CLR,0.00,VWS V14.01,2013-01-18 21:16:00,
2013-01-18 15:17:00,48.3,25.1,29.93,SSW,202,16.0,16.0,40,0.00,,CLR,0.00,VWS V14.01,2013-01-18 21:17:00,
2013-01-18 15:18:00,48.5,25.3,29.93,SSE,158,3.4,16.0,40,0.00,,CLR,0.00,VWS V14.01,2013-01-18 21:18:00,
2013-01-18 15:19:00,48.5,25.3,29.93,SW,225,10.2,10.2,40,0.00,,CLR,0.00,VWS V14.01,2013-01-18 21:19:00,
2013-01-18 15:22:00,48.7,25.5,29.93,SSE,158,3.4,6.6,40,0.00,,CLR,0.00,VWS V14.01,2013-01-18 21:22:00,
2013-01-18 15:24:00,48.7,25.5,29.93,SSE,158,10.2,10.2,40,0.00,,CLR,0.00,VWS V14.01,2013-01-18 21:24:00,
2013-01-18 15:28:00,49.1,25.8,29.93,SSW,202,5.8,8.0,40,0.00,,CLR,0.00,VWS V14.01,2013-01-18 21:28:00,
2013-01-18 15:29:00,49.1,25.8,29.93,SSW,202,5.8,5.8,40,0.00,,CLR,0.00,VWS V14.01,2013-01-18 21:29:00,
2013-01-18 15:30:00,49.1,25.8,29.93,SSW,202,12.4,12.4,40,0.00,,CLR,0.00,VWS V14.01,2013-01-18 21:30:00,
2013-01-18 15:33:00,49.1,25.8,29.93,SW,225,2.2,3.0,40,0.00,,CLR,0.00,VWS V14.01,2013-01-18 21:33:00,
2013-01-18 15:36:00,49.1,25.2,29.94,SSW,202,7.6,13.4,39,0.00,,CLR,0.00,VWS V14.01,2013-01-18 21:36:00,
2013-01-18 15:38:00,49.1,25.2,29.94,SSW,202,2.6,11.0,39,0.00,,CLR,0.00,VWS V14.01,2013-01-18 21:38:00,
2013-01-18 15:40:00,49.1,25.8,29.93,SSW,202,4.8,13.4,40,0.00,,CLR,0.00,VWS V14.01,2013-01-18 21:40:00,
2013-01-18 15:41:00,49.1,25.8,29.94,SE,135,8.0,8.0,40,0.00,,CLR,0.00,VWS V14.01,2013-01-18 21:41:00,
2013-01-18 15:42:00,49.1,25.8,29.94,WSW,248,6.2,8.0,40,0.00,,CLR,0.00,VWS V14.01,2013-01-18 21:42:00,
2013-01-18 15:46:00,49.2,25.9,29.93,WNW,292,9.2,9.2,40,0.00,,CLR,0.00,VWS V14.01,2013-01-18 21:46:00,
2013-01-18 15:50:00,49.1,25.8,29.94,SW,225,5.2,16.0,40,0.00,,CLR,0.00,VWS V14.01,2013-01-18 21:50:00,
2013-01-18 15:51:00,49.1,25.8,29.94,WSW,248,13.4,13.4,40,0.00,,CLR,0.00,VWS V14.01,2013-01-18 21:51:00,
2013-01-18 15:55:00,49.2,25.9,29.93,SW,225,0.0,0.0,40,0.00,,CLR,0.00,VWS V14.01,2013-01-18 21:55:00,
2013-01-18 15:57:00,49.1,25.8,29.94,SW,225,1.6,15.6,40,0.00,,CLR,0.00,VWS V14.01,2013-01-18 21:57:00,
2013-01-18 15:58:00,49.1,25.8,29.94,West,270,7.0,15.6,40,0.00,,CLR,0.00,VWS V14.01,2013-01-18 21:58:00,
2013-01-18 16:00:00,48.9,25.7,29.94,SW,225,6.2,6.2,40,0.00,,CLR,0.00,VWS V14.01,2013-01-18 22:00:00,
2013-01-18 16:02:00,48.9,25.7,29.94,SSW,202,11.0,11.0,40,0.00,,CLR,0.00,VWS V14.01,2013-01-18 22:02:00,
2013-01-18 16:04:00,48.7,25.5,29.94,SSW,202,10.6,11.0,40,0.00,,CLR,0.00,VWS V14.01,2013-01-18 22:04:00,
2013-01-18 16:08:00,48.3,25.7,29.93,West,270,8.8,8.8,41,0.00,,CLR,0.00,VWS V14.01,2013-01-18 22:08:00,
2013-01-18 16:09:00,48.5,25.9,29.94,SSE,158,2.6,8.8,41,0.00,,CLR,0.00,VWS V14.01,2013-01-18 22:09:00,
2013-01-18 16:13:00,47.8,25.3,29.94,SSW,202,3.4,11.0,41,0.00,,CLR,0.00,VWS V14.01,2013-01-18 22:13:00,
2013-01-18 16:14:00,47.8,25.3,29.94,SW,225,0.0,11.0,41,0.00,,CLR,0.00,VWS V14.01,2013-01-18 22:14:00,
2013-01-18 16:15:00,48.0,25.4,29.94,South,180,15.2,15.2,41,0.00,,CLR,0.00,VWS V14.01,2013-01-18 22:15:00,
2013-01-18 16:16:00,47.8,25.3,29.94,SSE,158,8.0,15.2,41,0.00,,CLR,0.00,VWS V14.01,2013-01-18 22:16:00,
2013-01-18 16:20:00,47.8,25.8,29.94,SSW,202,11.0,11.0,42,0.00,,CLR,0.00,VWS V14.01,2013-01-18 22:20:00,
2013-01-18 16:21:00,47.8,25.8,29.94,SSW,202,10.2,11.0,42,0.00,,CLR,0.00,VWS V14.01,2013-01-18 22:21:00,
2013-01-18 16:22:00,47.8,25.8,29.93,WSW,248,9.2,11.0,42,0.00,,CLR,0.00,VWS V14.01,2013-01-18 22:22:00,
2013-01-18 16:23:00,47.8,25.8,29.94,South,180,6.6,9.2,42,0.00,,CLR,0.00,VWS V14.01,2013-01-18 22:23:00,
2013-01-18 16:25:00,47.6,25.7,29.93,SSE,158,2.6,2.6,42,0.00,,CLR,0.00,VWS V14.01,2013-01-18 22:25:00,
2013-01-18 16:26:00,47.3,25.4,29.93,SSW,202,11.0,11.0,42,0.00,,CLR,0.00,VWS V14.01,2013-01-18 22:26:00,
2013-01-18 16:28:00,47.3,25.4,29.93,SW,225,15.2,15.2,42,0.00,,CLR,0.00,VWS V14.01,2013-01-18 22:28:00,
2013-01-18 16:31:00,46.7,25.4,29.93,South,180,8.0,8.0,43,0.00,,CLR,0.00,VWS V14.01,2013-01-18 22:31:00,
2013-01-18 16:32:00,46.7,25.4,29.93,SW,225,7.0,8.0,43,0.00,,CLR,0.00,VWS V14.01,2013-01-18 22:32:00,
2013-01-18 16:34:00,46.4,25.1,29.93,SSW,202,8.0,8.0,43,0.00,,CLR,0.00,VWS V14.01,2013-01-18 22:34:00,
2013-01-18 16:37:00,46.5,25.8,29.93,South,180,6.2,9.2,44,0.00,,CLR,0.00,VWS V14.01,2013-01-18 22:37:00,
2013-01-18 16:38:00,46.5,25.8,29.93,South,180,7.0,9.2,44,0.00,,CLR,0.00,VWS V14.01,2013-01-18 22:38:00,
2013-01-18 16:43:00,46.5,25.8,29.93,SSW,202,8.4,11.6,44,0.00,,CLR,0.00,VWS V14.01,2013-01-18 22:43:00,
2013-01-18 16:47:00,46.5,26.3,29.93,North,0,0.0,7.6,45,0.00,,CLR,0.00,VWS V14.01,2013-01-18 22:47:00,
2013-01-18 16:49:00,46.2,25.5,29.93,SW,225,0.4,2.6,44,0.00,,CLR,0.00,VWS V14.01,2013-01-18 22:49:00,
2013-01-18 16:50:00,46.4,26.2,29.93,SSW,202,6.2,6.2,45,0.00,,CLR,0.00,VWS V14.01,2013-01-18 22:50:00,
2013-01-18 16:53:00,46.0,25.9,29.93,SW,225,4.4,9.2,45,0.00,,CLR,0.00,VWS V14.01,2013-01-18 22:53:00,
2013-01-18 16:55:00,45.8,25.7,29.93,SSW,202,0.0,4.8,45,0.00,,CLR,0.00,VWS V14.01,2013-01-18 22:55:00,
2013-01-18 16:56:00,45.6,25.5,29.93,SSW,202,2.6,4.8,45,0.00,,CLR,0.00,VWS V14.01,2013-01-18 22:56:00,
2013-01-18 16:58:00,45.5,25.4,29.93,WSW,248,13.4,13.4,45,0.00,,CLR,0.00,VWS V14.01,2013-01-18 22:58:00,
2013-01-18 17:03:00,45.5,25.9,29.93,SSE,158,0.0,15.2,46,0.00,,CLR,0.00,VWS V14.01,2013-01-18 23:03:00,
2013-01-18 17:04:00,45.5,25.9,29.93,SSW,202,4.0,15.2,46,0.00,,CLR,0.00,VWS V14.01,2013-01-18 23:04:00,
2013-01-18 17:06:00,45.3,25.8,29.93,SSE,158,0.0,5.8,46,0.00,,CLR,0.00,VWS V14.01,2013-01-18 23:06:00,
2013-01-18 17:09:00,45.5,26.5,29.93,South,180,9.2,12.0,47,0.00,,CLR,0.00,VWS V14.01,2013-01-18 23:09:00,
2013-01-18 17:11:00,45.5,25.9,29.93,SW,225,7.0,7.0,46,0.00,,CLR,0.00,VWS V14.01,2013-01-18 23:11:00,
2013-01-18 17:12:00,45.3,26.3,29.93,South,180,8.0,8.0,47,0.00,,CLR,0.00,VWS V14.01,2013-01-18 23:12:00,
2013-01-18 17:18:00,45.3,26.3,29.93,SSW,202,5.8,5.8,47,0.00,,CLR,0.00,VWS V14.01,2013-01-18 23:18:00,
2013-01-18 17:19:00,45.3,26.3,29.93,SW,225,0.0,0.0,47,0.00,,CLR,0.00,VWS V14.01,2013-01-18 23:19:00,
2013-01-18 17:22:00,45.1,26.1,29.93,South,180,9.2,9.2,47,0.00,,CLR,0.00,VWS V14.01,2013-01-18 23:22:00,
2013-01-18 17:24:00,45.1,26.1,29.93,South,180,11.0,11.0,47,0.00,,CLR,0.00,VWS V14.01,2013-01-18 23:24:00,
2013-01-18 17:28:00,45.1,26.1,29.93,SSW,202,12.0,12.0,47,0.00,,CLR,0.00,VWS V14.01,2013-01-18 23:28:00,
2013-01-18 17:32:00,45.1,26.1,29.93,SSW,202,0.0,4.4,47,0.00,,CLR,0.00,VWS V14.01,2013-01-18 23:32:00,
2013-01-18 17:35:00,44.9,25.9,29.93,SSW,202,0.0,0.0,47,0.00,,CLR,0.00,VWS V14.01,2013-01-18 23:35:00,
2013-01-18 17:36:00,44.9,25.9,29.93,SSE,158,12.4,12.4,47,0.00,,CLR,0.00,VWS V14.01,2013-01-18 23:36:00,
2013-01-18 17:37:00,44.9,25.9,29.93,SSE,158,12.4,12.4,47,0.00,,CLR,0.00,VWS V14.01,2013-01-18 23:37:00,
2013-01-18 17:39:00,44.7,25.7,29.94,SSW,202,0.0,0.0,47,0.00,,CLR,0.00,VWS V14.01,2013-01-18 23:39:00,
2013-01-18 17:40:00,44.7,26.2,29.94,SSW,202,0.0,5.8,48,0.00,,CLR,0.00,VWS V14.01,2013-01-18 23:40:00,
2013-01-18 17:42:00,44.7,26.2,29.94,SSW,202,8.8,8.8,48,0.00,,CLR,0.00,VWS V14.01,2013-01-18 23:42:00,
2013-01-18 17:44:00,44.7,26.2,29.94,SSW,202,5.8,8.8,48,0.00,,CLR,0.00,VWS V14.01,2013-01-18 23:44:00,
2013-01-18 17:47:00,44.7,26.2,29.94,South,180,6.2,6.2,48,0.00,,CLR,0.00,VWS V14.01,2013-01-18 23:47:00,
2013-01-18 17:48:00,44.7,26.2,29.94,South,180,1.6,6.2,48,0.00,,CLR,0.00,VWS V14.01,2013-01-18 23:48:00,
2013-01-18 17:50:00,44.7,26.2,29.93,South,180,9.2,9.2,48,0.00,,CLR,0.00,VWS V14.01,2013-01-18 23:50:00,
2013-01-18 17:51:00,44.7,26.2,29.94,SSW,202,0.0,0.0,48,0.00,,CLR,0.00,VWS V14.01,2013-01-18 23:51:00,
2013-01-18 17:54:00,44.7,26.2,29.94,SW,225,0.0,5.2,48,0.00,,CLR,0.00,VWS V14.01,2013-01-18 23:54:00,
2013-01-18 17:55:00,44.6,26.1,29.94,SSW,202,5.2,5.2,48,0.00,,CLR,0.00,VWS V14.01,2013-01-18 23:55:00,
2013-01-18 17:56:00,44.6,26.1,29.94,SSW,202,6.6,6.6,48,0.00,,CLR,0.00,VWS V14.01,2013-01-18 23:56:00,
2013-01-18 18:00:00,44.2,25.8,29.93,SW,225,3.0,3.0,48,0.00,,CLR,0.00,VWS V14.01,2013-01-19 00:00:00,
2013-01-18 18:01:00,44.4,26.0,29.93,South,180,8.8,8.8,48,0.00,,CLR,0.00,VWS V14.01,2013-01-19 00:01:00,
2013-01-18 18:02:00,44.4,26.0,29.93,SSW,202,3.4,3.4,48,0.00,,CLR,0.00,VWS V14.01,2013-01-19 00:02:00,
2013-01-18 18:07:00,44.4,26.0,29.94,SSW,202,10.2,10.2,48,0.00,,CLR,0.00,VWS V14.01,2013-01-19 00:07:00,
2013-01-18 18:09:00,44.2,25.8,29.93,SSW,202,1.6,10.6,48,0.00,,CLR,0.00,VWS V14.01,2013-01-19 00:09:00,
2013-01-18 18:10:00,44.2,25.8,29.93,SSW,202,3.4,10.6,48,0.00,,CLR,0.00,VWS V14.01,2013-01-19 00:10:00,
2013-01-18 18:13:00,44.2,25.8,29.93,SW,225,5.2,5.2,48,0.00,,CLR,0.00,VWS V14.01,2013-01-19 00:13:00,
2013-01-18 18:15:00,44.2,25.8,29.93,South,180,0.0,0.0,48,0.00,,CLR,0.00,VWS V14.01,2013-01-19 00:15:00,
2013-01-18 18:16:00,44.2,25.8,29.93,SW,225,5.8,5.8,48,0.00,,CLR,0.00,VWS V14.01,2013-01-19 00:16:00,
2013-01-18 18:19:00,44.2,25.8,29.93,SSW,202,7.6,8.4,48,0.00,,CLR,0.00,VWS V14.01,2013-01-19 00:19:00,
2013-01-18 18:20:00,44.2,25.8,29.93,SSW,202,12.4,12.4,48,0.00,,CLR,0.00,VWS V14.01,2013-01-19 00:20:00,
2013-01-18 18:24:00,44.2,25.8,29.94,South,180,1.6,1.6,48,0.00,,CLR,0.00,VWS V14.01,2013-01-19 00:24:00,
2013-01-18 18:25:00,44.2,25.8,29.94,SW,225,6.6,6.6,48,0.00,,CLR,0.00,VWS V14.01,2013-01-19 00:25:00,
2013-01-18 18:26:00,44.2,25.8,29.93,SSW,202,9.2,9.2,48,0.00,,CLR,0.00,VWS V14.01,2013-01-19 00:26:00,
2013-01-18 18:31:00,44.2,25.8,29.93,South,180,9.8,9.8,48,0.00,,CLR,0.00,VWS V14.01,2013-01-19 00:31:00,
2013-01-18 18:32:00,44.2,25.8,29.93,SE,135,0.0,9.8,48,0.00,,CLR,0.00,VWS V14.01,2013-01-19 00:32:00,
2013-01-18 18:35:00,44.2,25.8,29.93,SSE,158,0.0,4.8,48,0.00,,CLR,0.00,VWS V14.01,2013-01-19 00:35:00,
2013-01-18 18:36:00,44.2,25.8,29.93,SW,225,3.4,3.4,48,0.00,,CLR,0.00,VWS V14.01,2013-01-19 00:36:00,
2013-01-18 18:38:00,44.2,25.8,29.94,SSW,202,0.4,6.6,48,0.00,,CLR,0.00,VWS V14.01,2013-01-19 00:38:00,
2013-01-18 18:40:00,44.2,25.8,29.93,South,180,0.0,0.0,48,0.00,,CLR,0.00,VWS V14.01,2013-01-19 00:40:00,
2013-01-18 18:42:00,44.0,25.6,29.93,South,180,0.0,0.0,48,0.00,,CLR,0.00,VWS V14.01,2013-01-19 00:42:00,
2013-01-18 18:44:00,43.8,25.4,29.94,SSW,202,0.0,0.0,48,0.00,,CLR,0.00,VWS V14.01,2013-01-19 00:44:00,
2013-01-18 18:45:00,43.8,25.4,29.94,South,180,8.0,8.0,48,0.00,,CLR,0.00,VWS V14.01,2013-01-19 00:45:00,
2013-01-18 18:47:00,43.8,25.4,29.94,South,180,0.0,14.6,48,0.00,,CLR,0.00,VWS V14.01,2013-01-19 00:47:00,
2013-01-18 18:50:00,43.7,25.3,29.94,SSW,202,0.0,5.2,48,0.00,,CLR,0.00,VWS V14.01,2013-01-19 00:50:00,
2013-01-18 18:53:00,43.8,25.4,29.94,SSW,202,4.4,4.4,48,0.00,,CLR,0.00,VWS V14.01,2013-01-19 00:53:00,
2013-01-18 18:55:00,43.8,25.4,29.94,South,180,12.4,12.4,48,0.00,,CLR,0.00,VWS V14.01,2013-01-19 00:55:00,
2013-01-18 18:56:00,43.7,25.3,29.93,SW,225,0.0,12.4,48,0.00,,CLR,0.00,VWS V14.01,2013-01-19 00:56:00,
2013-01-18 19:00:00,43.7,25.3,29.94,SSW,202,0.0,8.4,48,0.00,,CLR,0.00,VWS V14.01,2013-01-19 01:00:00,
2013-01-18 19:01:00,43.7,25.3,29.94,South,180,0.0,0.0,48,0.00,,CLR,0.00,VWS V14.01,2013-01-19 01:01:00,
2013-01-18 19:05:00,43.5,25.6,29.93,SW,225,3.0,3.0,49,0.00,,CLR,0.00,VWS V14.01,2013-01-19 01:05:00,
2013-01-18 19:06:00,43.5,25.6,29.93,South,180,0.0,0.0,49,0.00,,CLR,0.00,VWS V14.01,2013-01-19 01:06:00,
2013-01-18 19:07:00,43.5,25.6,29.93,SSW,202,8.8,8.8,49,0.00,,CLR,0.00,VWS V14.01,2013-01-19 01:07:00,
2013-01-18 19:08:00,43.5,25.6,29.93,South,180,5.2,5.2,49,0.00,,CLR,0.00,VWS V14.01,2013-01-19 01:08:00,
2013-01-18 19:10:00,43.5,25.6,29.94,SSE,158,4.4,4.4,49,0.00,,CLR,0.00,VWS V14.01,2013-01-19 01:10:00,
2013-01-18 19:13:00,43.5,25.6,29.94,SSW,202,5.2,5.2,49,0.00,,CLR,0.00,VWS V14.01,2013-01-19 01:13:00,
2013-01-18 19:15:00,43.5,25.6,29.94,South,180,8.0,8.0,49,0.00,,CLR,0.00,VWS V14.01,2013-01-19 01:15:00,
2013-01-18 19:16:00,43.3,25.4,29.94,South,180,7.0,7.0,49,0.00,,CLR,0.00,VWS V14.01,2013-01-19 01:16:00,
2013-01-18 19:19:00,43.3,25.4,29.94,SSW,202,10.2,10.6,49,0.00,,CLR,0.00,VWS V14.01,2013-01-19 01:19:00,
2013-01-18 19:21:00,43.5,25.6,29.94,SW,225,5.8,5.8,49,0.00,,CLR,0.00,VWS V14.01,2013-01-19 01:21:00,
2013-01-18 19:22:00,43.5,25.6,29.93,SSW,202,0.0,5.8,49,0.00,,CLR,0.00,VWS V14.01,2013-01-19 01:22:00,
2013-01-18 19:24:00,43.3,25.4,29.94,SW,225,0.0,2.2,49,0.00,,CLR,0.00,VWS V14.01,2013-01-19 01:24:00,
2013-01-18 19:25:00,43.3,25.4,29.94,SW,225,0.0,0.0,49,0.00,,CLR,0.00,VWS V14.01,2013-01-19 01:25:00,
2013-01-18 19:29:00,43.5,25.6,29.93,SW,225,0.0,0.0,49,0.00,,CLR,0.00,VWS V14.01,2013-01-19 01:29:00,
2013-01-18 19:30:00,43.5,25.6,29.93,SSE,158,2.2,2.2,49,0.00,,CLR,0.00,VWS V14.01,2013-01-19 01:30:00,
2013-01-18 19:32:00,43.5,25.6,29.93,SW,225,3.0,3.0,49,0.00,,CLR,0.00,VWS V14.01,2013-01-19 01:32:00,
2013-01-18 19:34:00,43.5,25.6,29.93,SW,225,9.8,9.8,49,0.00,,CLR,0.00,VWS V14.01,2013-01-19 01:34:00,
2013-01-18 19:36:00,43.7,25.8,29.93,South,180,8.8,9.8,49,0.00,,CLR,0.00,VWS V14.01,2013-01-19 01:36:00,
2013-01-18 19:39:00,43.7,25.3,29.93,SW,225,9.2,9.2,48,0.00,,CLR,0.00,VWS V14.01,2013-01-19 01:39:00,
2013-01-18 19:40:00,43.7,25.3,29.93,SSW,202,4.8,9.2,48,0.00,,CLR,0.00,VWS V14.01,2013-01-19 01:40:00,
2013-01-18 19:42:00,43.7,25.3,29.93,SSW,202,6.2,8.0,48,0.00,,CLR,0.00,VWS V14.01,2013-01-19 01:42:00,
2013-01-18 19:44:00,43.7,25.3,29.93,SW,225,0.0,6.2,48,0.00,,CLR,0.00,VWS V14.01,2013-01-19 01:44:00,
2013-01-18 19:45:00,43.7,25.3,29.93,SW,225,0.0,0.0,48,0.00,,CLR,0.00,VWS V14.01,2013-01-19 01:45:00,
2013-01-18 19:46:00,43.7,25.3,29.93,SSW,202,12.0,12.0,48,0.00,,CLR,0.00,VWS V14.01,2013-01-19 01:46:00,
2013-01-18 19:50:00,43.7,25.3,29.93,SSW,202,0.0,10.6,48,0.00,,CLR,0.00,VWS V14.01,2013-01-19 01:50:00,
2013-01-18 19:52:00,43.7,24.8,29.93,South,180,0.0,0.0,47,0.00,,CLR,0.00,VWS V14.01,2013-01-19 01:52:00,
2013-01-18 19:54:00,43.7,25.3,29.93,SW,225,9.2,9.2,48,0.00,,CLR,0.00,VWS V14.01,2013-01-19 01:54:00,
2013-01-18 19:57:00,43.5,25.1,29.92,SSE,158,2.6,2.6,48,0.00,,CLR,0.00,VWS V14.01,2013-01-19 01:57:00,
2013-01-18 19:58:00,43.5,25.1,29.93,SW,225,8.4,8.4,48,0.00,,CLR,0.00,VWS V14.01,2013-01-19 01:58:00,
2013-01-18 20:00:00,43.5,25.1,29.93,SSE,158,0.0,8.4,48,0.00,,CLR,0.00,VWS V14.01,2013-01-19 02:00:00,
2013-01-18 20:02:00,43.5,25.1,29.93,SW,225,0.0,0.0,48,0.00,,CLR,0.00,VWS V14.01,2013-01-19 02:02:00,
2013-01-18 20:03:00,43.5,25.1,29.93,South,180,0.0,0.0,48,0.00,,CLR,0.00,VWS V14.01,2013-01-19 02:03:00,
2013-01-18 20:05:00,43.3,24.9,29.93,South,180,0.0,0.0,48,0.00,,CLR,0.00,VWS V14.01,2013-01-19 02:05:00,
2013-01-18 20:06:00,43.3,24.9,29.93,SW,225,4.4,4.4,48,0.00,,CLR,0.00,VWS V14.01,2013-01-19 02:06:00,
2013-01-18 20:07:00,43.3,24.9,29.93,SSE,158,0.0,0.0,48,0.00,,CLR,0.00,VWS V14.01,2013-01-19 02:07:00,
2013-01-18 20:08:00,43.3,24.9,29.93,SSE,158,13.8,13.8,48,0.00,,CLR,0.00,VWS V14.01,2013-01-19 02:08:00,
2013-01-18 20:12:00,43.3,24.9,29.93,SSW,202,0.0,4.4,48,0.00,,CLR,0.00,VWS V14.01,2013-01-19 02:12:00,
2013-01-18 20:14:00,43.1,25.3,29.93,North,0,0.0,0.0,49,0.00,,CLR,0.00,VWS V14.01,2013-01-19 02:14:00,
2013-01-18 20:17:00,43.1,25.3,29.93,SW,225,0.0,1.6,49,0.00,,CLR,0.00,VWS V14.01,2013-01-19 02:17:00,
2013-01-18 20:18:00,43.1,25.3,29.93,South,180,0.0,0.0,49,0.00,,CLR,0.00,VWS V14.01,2013-01-19 02:18:00,
2013-01-18 20:19:00,43.1,25.3,29.93,SW,225,0.0,0.0,49,0.00,,CLR,0.00,VWS V14.01,2013-01-19 02:19:00,
2013-01-18 20:23:00,43.3,25.4,29.93,SW,225,4.8,4.8,49,0.00,,CLR,0.00,VWS V14.01,2013-01-19 02:23:00,
2013-01-18 20:24:00,43.3,25.4,29.93,SSW,202,7.6,7.6,49,0.00,,CLR,0.00,VWS V14.01,2013-01-19 02:24:00,
2013-01-18 20:25:00,43.5,25.6,29.93,North,0,0.0,7.6,49,0.00,,CLR,0.00,VWS V14.01,2013-01-19 02:25:00,
2013-01-18 20:28:00,43.5,25.6,29.93,SW,225,0.0,0.0,49,0.00,,CLR,0.00,VWS V14.01,2013-01-19 02:28:00,
2013-01-18 20:30:00,43.5,25.6,29.93,SSW,202,12.8,12.8,49,0.00,,CLR,0.00,VWS V14.01,2013-01-19 02:30:00,
2013-01-18 20:32:00,43.5,25.6,29.93,SSW,202,5.2,5.2,49,0.00,,CLR,0.00,VWS V14.01,2013-01-19 02:32:00,
2013-01-18 20:34:00,43.5,25.6,29.93,SSW,202,4.0,4.0,49,0.00,,CLR,0.00,VWS V14.01,2013-01-19 02:34:00,
2013-01-18 20:35:00,43.5,25.6,29.93,SSW,202,0.0,4.0,49,0.00,,CLR,0.00,VWS V14.01,2013-01-19 02:35:00,
2013-01-18 20:37:00,43.7,25.3,29.92,SSE,158,4.8,5.2,48,0.00,,CLR,0.00,VWS V14.01,2013-01-19 02:37:00,
2013-01-18 20:38:00,43.7,25.3,29.92,South,180,2.2,2.2,48,0.00,,CLR,0.00,VWS V14.01,2013-01-19 02:38:00,
2013-01-18 20:43:00,43.7,25.3,29.92,West,270,13.8,13.8,48,0.00,,CLR,0.00,VWS V14.01,2013-01-19 02:43:00,
2013-01-18 20:44:00,44.0,25.6,29.92,South,180,6.2,13.8,48,0.00,,CLR,0.00,VWS V14.01,2013-01-19 02:44:00,
2013-01-18 20:45:00,44.0,25.6,29.92,South,180,6.2,6.2,48,0.00,,CLR,0.00,VWS V14.01,2013-01-19 02:45:00,
2013-01-18 20:48:00,43.7,25.3,29.92,SSW,202,6.2,6.2,48,0.00,,CLR,0.00,VWS V14.01,2013-01-19 02:48:00,
2013-01-18 20:49:00,43.8,25.4,29.93,South,180,12.4,12.4,48,0.00,,CLR,0.00,VWS V14.01,2013-01-19 02:49:00,
2013-01-18 20:50:00,44.0,25.6,29.93,SSW,202,4.8,12.4,48,0.00,,CLR,0.00,VWS V14.01,2013-01-19 02:50:00,
2013-01-18 20:53:00,44.2,25.8,29.92,SW,225,1.2,1.2,48,0.00,,CLR,0.00,VWS V14.01,2013-01-19 02:53:00,
2013-01-18 20:54:00,44.2,25.8,29.93,SW,225,0.0,1.2,48,0.00,,CLR,0.00,VWS V14.01,2013-01-19 02:54:00,
2013-01-18 20:56:00,44.0,25.6,29.93,South,180,0.0,0.0,48,0.00,,CLR,0.00,VWS V14.01,2013-01-19 02:56:00,
2013-01-18 20:58:00,44.2,25.8,29.93,SW,225,0.0,17.8,48,0.00,,CLR,0.00,VWS V14.01,2013-01-19 02:58:00,
2013-01-18 21:02:00,44.2,25.8,29.93,West,270,7.6,11.6,48,0.00,,CLR,0.00,VWS V14.01,2013-01-19 03:02:00,
2013-01-18 21:04:00,44.2,25.8,29.92,SW,225,0.0,7.6,48,0.00,,CLR,0.00,VWS V14.01,2013-01-19 03:04:00,
2013-01-18 21:06:00,44.4,26.0,29.92,SW,225,6.6,6.6,48,0.00,,CLR,0.00,VWS V14.01,2013-01-19 03:06:00,
2013-01-18 21:09:00,44.6,26.1,29.92,SW,225,2.2,7.0,48,0.00,,CLR,0.00,VWS V14.01,2013-01-19 03:09:00,
2013-01-18 21:10:00,44.7,25.7,29.92,SSW,202,4.8,7.0,47,0.00,,CLR,0.00,VWS V14.01,2013-01-19 03:10:00,
2013-01-18 21:12:00,44.7,25.7,29.92,North,0,0.0,6.6,47,0.00,,CLR,0.00,VWS V14.01,2013-01-19 03:12:00,
2013-01-18 21:13:00,44.7,25.7,29.92,SSW,202,4.4,4.4,47,0.00,,CLR,0.00,VWS V14.01,2013-01-19 03:13:00,
2013-01-18 21:16:00,44.7,25.7,29.92,SW,225,0.0,1.6,47,0.00,,CLR,0.00,VWS V14.01,2013-01-19 03:16:00,
2013-01-18 21:17:00,44.7,25.7,29.92,SW,225,0.0,0.0,47,0.00,,CLR,0.00,VWS V14.01,2013-01-19 03:17:00,
2013-01-18 21:19:00,44.7,25.7,29.92,SSW,202,0.0,8.0,47,0.00,,CLR,0.00,VWS V14.01,2013-01-19 03:19:00,
2013-01-18 21:22:00,44.6,25.6,29.92,SSE,158,9.2,9.2,47,0.00,,CLR,0.00,VWS V14.01,2013-01-19 03:22:00,
2013-01-18 21:24:00,44.4,25.5,29.92,SW,225,9.2,9.2,47,0.00,,CLR,0.00,VWS V14.01,2013-01-19 03:24:00,
2013-01-18 21:29:00,44.7,25.7,29.92,SSW,202,5.2,7.0,47,0.00,,CLR,0.00,VWS V14.01,2013-01-19 03:29:00,
2013-01-18 21:30:00,44.7,25.7,29.92,SW,225,5.2,7.0,47,0.00,,CLR,0.00,VWS V14.01,2013-01-19 03:30:00,
2013-01-18 21:33:00,44.7,25.7,29.92,SW,225,8.8,8.8,47,0.00,,CLR,0.00,VWS V14.01,2013-01-19 03:33:00,
2013-01-18 21:35:00,44.7,25.7,29.92,WSW,248,17.8,17.8,47,0.00,,CLR,0.00,VWS V14.01,2013-01-19 03:35:00,
2013-01-18 21:36:00,44.4,25.5,29.92,SSE,158,2.6,17.8,47,0.00,,CLR,0.00,VWS V14.01,2013-01-19 03:36:00,
2013-01-18 21:38:00,44.7,25.7,29.92,SSW,202,2.6,2.6,47,0.00,,CLR,0.00,VWS V14.01,2013-01-19 03:38:00,
2013-01-18 21:39:00,44.7,25.7,29.92,SW,225,8.4,8.4,47,0.00,,CLR,0.00,VWS V14.01,2013-01-19 03:39:00,
2013-01-18 21:42:00,44.7,25.7,29.92,SW,225,0.0,0.0,47,0.00,,CLR,0.00,VWS V14.01,2013-01-19 03:42:00,
2013-01-18 21:45:00,44.6,25.6,29.92,SSW,202,11.0,11.0,47,0.00,,CLR,0.00,VWS V14.01,2013-01-19 03:45:00,
2013-01-18 21:47:00,44.7,25.7,29.92,SW,225,6.2,6.2,47,0.00,,CLR,0.00,VWS V14.01,2013-01-19 03:47:00,
2013-01-18 21:50:00,44.7,25.7,29.92,SSW,202,0.0,0.0,47,0.00,,CLR,0.00,VWS V14.01,2013-01-19 03:50:00,
2013-01-18 21:54:00,44.4,25.5,29.92,SW,225,4.0,4.0,47,0.00,,CLR,0.00,VWS V14.01,2013-01-19 03:54:00,
2013-01-18 21:56:00,44.6,25.6,29.91,SW,225,5.2,5.2,47,0.00,,CLR,0.00,VWS V14.01,2013-01-19 03:56:00,
2013-01-18 22:02:00,44.2,25.8,29.92,SW,225,3.0,12.8,48,0.00,,CLR,0.00,VWS V14.01,2013-01-19 04:02:00,
2013-01-18 22:03:00,44.2,25.8,29.92,SSW,202,0.0,0.0,48,0.00,,CLR,0.00,VWS V14.01,2013-01-19 04:03:00,
2013-01-18 22:04:00,44.2,25.8,29.92,SSW,202,4.0,11.0,48,0.00,,CLR,0.00,VWS V14.01,2013-01-19 04:04:00,
2013-01-18 22:05:00,44.2,25.8,29.92,SW,225,7.0,7.0,48,0.00,,CLR,0.00,VWS V14.01,2013-01-19 04:05:00,
2013-01-18 22:08:00,44.2,25.8,29.92,South,180,0.0,6.2,48,0.00,,CLR,0.00,VWS V14.01,2013-01-19 04:08:00,
2013-01-18 22:09:00,44.2,25.8,29.92,SSW,202,10.6,10.6,48,0.00,,CLR,0.00,VWS V14.01,2013-01-19 04:09:00,
2013-01-18 22:10:00,44.4,26.0,29.91,South,180,4.4,10.6,48,0.00,,CLR,0.00,VWS V14.01,2013-01-19 04:10:00,
2013-01-18 22:12:00,44.2,25.8,29.91,SSW,202,7.0,7.0,48,0.00,,CLR,0.00,VWS V14.01,2013-01-19 04:12:00,
2013-01-18 22:15:00,44.2,25.8,29.92,SSW,202,9.2,9.2,48,0.00,,CLR,0.00,VWS V14.01,2013-01-19 04:15:00,
2013-01-18 22:18:00,44.2,25.8,29.91,SSW,202,9.2,9.2,48,0.00,,CLR,0.00,VWS V14.01,2013-01-19 04:18:00,
2013-01-18 22:20:00,44.2,25.8,29.91,SSW,202,8.4,9.2,48,0.00,,CLR,0.00,VWS V14.01,2013-01-19 04:20:00,
2013-01-18 22:22:00,44.2,25.8,29.92,SW,225,5.2,8.8,48,0.00,,CLR,0.00,VWS V14.01,2013-01-19 04:22:00,
2013-01-18 22:25:00,44.0,25.6,29.91,South,180,0.0,4.4,48,0.00,,CLR,0.00,VWS V14.01,2013-01-19 04:25:00,
2013-01-18 22:27:00,44.0,25.6,29.91,SW,225,8.4,8.4,48,0.00,,CLR,0.00,VWS V14.01,2013-01-19 04:27:00,
2013-01-18 22:28:00,44.0,25.6,29.91,SSW,202,4.8,8.4,48,0.00,,CLR,0.00,VWS V14.01,2013-01-19 04:28:00,
2013-01-18 22:31:00,43.8,25.4,29.91,SW,225,0.0,0.0,48,0.00,,CLR,0.00,VWS V14.01,2013-01-19 04:31:00,
2013-01-18 22:32:00,43.8,25.4,29.91,SW,225,6.2,6.2,48,0.00,,CLR,0.00,VWS V14.01,2013-01-19 04:32:00,
2013-01-18 22:35:00,43.8,25.4,29.90,SW,225,0.0,4.8,48,0.00,,CLR,0.00,VWS V14.01,2013-01-19 04:35:00,
2013-01-18 22:36:00,43.7,25.3,29.90,SSW,202,2.6,2.6,48,0.00,,CLR,0.00,VWS V14.01,2013-01-19 04:36:00,
2013-01-18 22:37:00,43.7,25.3,29.90,SSW,202,4.4,4.4,48,0.00,,CLR,0.00,VWS V14.01,2013-01-19 04:37:00,
2013-01-18 22:40:00,43.8,25.9,29.91,SW,225,0.0,0.0,49,0.00,,CLR,0.00,VWS V14.01,2013-01-19 04:40:00,
2013-01-18 22:42:00,43.7,25.8,29.90,SW,225,4.8,4.8,49,0.00,,CLR,0.00,VWS V14.01,2013-01-19 04:42:00,
2013-01-18 22:44:00,43.8,25.9,29.91,SW,225,12.4,12.4,49,0.00,,CLR,0.00,VWS V14.01,2013-01-19 04:44:00,
2013-01-18 22:45:00,43.7,25.8,29.90,SSW,202,14.6,14.6,49,0.00,,CLR,0.00,VWS V14.01,2013-01-19 04:45:00,
2013-01-18 22:48:00,43.8,25.9,29.91,SW,225,1.2,4.4,49,0.00,,CLR,0.00,VWS V14.01,2013-01-19 04:48:00,
2013-01-18 22:50:00,43.7,25.8,29.90,South,180,0.0,0.0,49,0.00,,CLR,0.00,VWS V14.01,2013-01-19 04:50:00,
2013-01-18 22:51:00,43.7,25.8,29.91,SW,225,9.2,9.2,49,0.00,,CLR,0.00,VWS V14.01,2013-01-19 04:51:00,
2013-01-18 22:53:00,43.7,25.8,29.90,SW,225,10.2,10.2,49,0.00,,CLR,0.00,VWS V14.01,2013-01-19 04:53:00,
2013-01-18 22:54:00,43.7,25.8,29.90,SW,225,1.6,10.2,49,0.00,,CLR,0.00,VWS V14.01,2013-01-19 04:54:00,
2013-01-18 22:55:00,43.7,25.8,29.91,SSW,202,0.0,1.6,49,0.00,,CLR,0.00,VWS V14.01,2013-01-19 04:55:00,
2013-01-18 23:00:00,43.7,25.8,29.90,SW,225,4.4,5.2,49,0.00,,CLR,0.00,VWS V14.01,2013-01-19 05:00:00,
2013-01-18 23:02:00,43.7,25.8,29.90,SW,225,1.2,4.4,49,0.00,,CLR,0.00,VWS V14.01,2013-01-19 05:02:00,
2013-01-18 23:07:00,43.7,26.3,29.90,SW,225,0.0,12.0,50,0.00,,CLR,0.00,VWS V14.01,2013-01-19 05:07:00,
2013-01-18 23:10:00,43.7,26.3,29.91,SSE,158,3.4,11.6,50,0.00,,CLR,0.00,VWS V14.01,2013-01-19 05:10:00,
2013-01-18 23:12:00,43.5,25.6,29.91,SSE,158,0.0,3.4,49,0.00,,CLR,0.00,VWS V14.01,2013-01-19 05:12:00,
2013-01-18 23:13:00,43.5,26.1,29.91,SW,225,3.4,3.4,50,0.00,,CLR,0.00,VWS V14.01,2013-01-19 05:13:00,
2013-01-18 23:14:00,43.5,26.1,29.91,SW,225,5.8,5.8,50,0.00,,CLR,0.00,VWS V14.01,2013-01-19 05:14:00,
2013-01-18 23:19:00,43.3,25.9,29.91,SSW,202,0.0,0.0,50,0.00,,CLR,0.00,VWS V14.01,2013-01-19 05:19:00,
2013-01-18 23:20:00,43.5,26.1,29.91,SSW,202,4.4,4.4,50,0.00,,CLR,0.00,VWS V14.01,2013-01-19 05:20:00,
2013-01-18 23:21:00,43.5,26.1,29.91,SW,225,0.0,4.4,50,0.00,,CLR,0.00,VWS V14.01,2013-01-19 05:21:00,
2013-01-18 23:22:00,43.5,26.1,29.91,SW,225,0.0,4.4,50,0.00,,CLR,0.00,VWS V14.01,2013-01-19 05:22:00,
2013-01-18 23:25:00,43.5,26.1,29.90,SW,225,0.0,6.2,50,0.00,,CLR,0.00,VWS V14.01,2013-01-19 05:25:00,
2013-01-18 23:26:00,43.3,25.9,29.91,SW,225,8.4,8.4,50,0.00,,CLR,0.00,VWS V14.01,2013-01-19 05:26:00,
2013-01-18 23:28:00,43.5,26.6,29.91,SW,225,7.0,8.4,51,0.00,,CLR,0.00,VWS V14.01,2013-01-19 05:28:00,
2013-01-18 23:33:00,43.5,26.6,29.91,SW,225,4.0,8.8,51,0.00,,CLR,0.00,VWS V14.01,2013-01-19 05:33:00,
2013-01-18 23:34:00,43.3,26.4,29.92,SW,225,5.2,5.2,51,0.00,,CLR,0.00,VWS V14.01,2013-01-19 05:34:00,
2013-01-18 23:36:00,43.5,26.6,29.91,SW,225,4.8,5.2,51,0.00,,CLR,0.00,VWS V14.01,2013-01-19 05:36:00,
2013-01-18 23:39:00,43.5,26.6,29.91,SSW,202,0.0,10.6,51,0.00,,CLR,0.00,VWS V14.01,2013-01-19 05:39:00,
2013-01-18 23:42:00,43.3,26.4,29.91,SW,225,6.2,6.2,51,0.00,,CLR,0.00,VWS V14.01,2013-01-19 05:42:00,
2013-01-18 23:43:00,43.3,26.4,29.91,SW,225,0.0,6.2,51,0.00,,CLR,0.00,VWS V14.01,2013-01-19 05:43:00,
2013-01-18 23:44:00,43.3,26.4,29.91,SW,225,8.8,8.8,51,0.00,,CLR,0.00,VWS V14.01,2013-01-19 05:44:00,
2013-01-18 23:46:00,43.3,26.4,29.91,North,0,0.0,0.0,51,0.00,,CLR,0.00,VWS V14.01,2013-01-19 05:46:00,
2013-01-18 23:50:00,43.3,26.4,29.91,North,0,0.0,0.0,51,0.00,,CLR,0.00,VWS V14.01,2013-01-19 05:50:00,
2013-01-18 23:51:00,43.3,26.4,29.91,North,0,0.0,0.0,51,0.00,,CLR,0.00,VWS V14.01,2013-01-19 05:51:00,
2013-01-18 23:52:00,43.3,26.4,29.91,SW,225,1.2,2.6,51,0.00,,CLR,0.00,VWS V14.01,2013-01-19 05:52:00,
2013-01-18 23:54:00,43.1,26.2,29.91,SW,225,0.0,1.2,51,0.00,,CLR,0.00,VWS V14.01,2013-01-19 05:54:00,
2013-01-18 23:58:00,42.9,26.0,29.92,SW,225,7.0,7.0,51,0.00,,CLR,0.00,VWS V14.01,2013-01-19 05:58:00,